Time,TemperatureF,DewpointF,PressureIn,WindDirection,WindDirectionDegrees,WindSpeedMPH,WindSpeedGustMPH,Humidity,HourlyPrecipIn,Conditions,Clouds,dailyrainin,SolarRadiationWatts/m^2,SoftwareType,DateUTC
2013-11-05 00:01:00,47.3,43.3,30.27,NNW,337,1.0,1.0,86,0.00,,,0.00,0,Wunderground v.1.15,2013-11-05 06:01:00,
2013-11-05 00:02:00,47.2,43.2,30.27,NNW,337,1.0,2.0,86,0.00,,,0.00,0,Wunderground v.1.15,2013-11-05 06:02:00,
2013-11-05 00:05:00,47.2,43.2,30.27,NNW,337,1.0,4.0,86,0.00,,,0.00,0,Wunderground v.1.15,2013-11-05 06:05:00,
2013-11-05 00:07:00,47.2,43.2,30.27,NNW,337,1.0,4.0,86,0.00,,,0.00,0,Wunderground v.1.15,2013-11-05 06:07:00,
2013-11-05 00:09:00,47.2,43.2,30.27,NNW,337,1.0,4.0,86,0.00,,,0.00,0,Wunderground v.1.15,2013-11-05 06:09:00,
2013-11-05 00:11:00,47.2,43.2,30.27,NNW,337,1.0,1.0,86,0.00,,,0.00,0,Wunderground v.1.15,2013-11-05 06:11:00,
2013-11-05 00:14:00,47.2,43.2,30.27,NNW,337,0.0,1.0,86,0.00,,,0.00,0,Wunderground v.1.15,2013-11-05 06:14:00,
2013-11-05 00:15:00,47.1,43.1,30.27,NNW,337,0.0,1.0,86,0.00,,,0.00,0,Wunderground v.1.15,2013-11-05 06:15:00,
2013-11-05 00:16:00,47.1,43.1,30.27,NNW,337,0.0,2.0,86,0.00,,,0.00,0,Wunderground v.1.15,2013-11-05 06:16:00,
2013-11-05 00:17:00,47.1,43.1,30.27,NNW,337,0.0,2.0,86,0.00,,,0.00,0,Wunderground v.1.15,2013-11-05 06:17:00,
2013-11-05 00:18:00,47.1,43.1,30.27,NNW,337,0.0,2.0,86,0.00,,,0.00,0,Wunderground v.1.15,2013-11-05 06:18:00,
2013-11-05 00:22:00,47.1,43.4,30.27,NNW,336,0.0,0.0,87,0.00,,,0.00,0,Wunderground v.1.15,2013-11-05 06:22:00,
2013-11-05 00:23:00,47.1,43.4,30.27,NNW,337,0.0,0.0,87,0.00,,,0.00,0,Wunderground v.1.15,2013-11-05 06:23:00,
2013-11-05 00:25:00,47.0,43.3,30.27,NNW,337,0.0,0.0,87,0.00,,,0.00,0,Wunderground v.1.15,2013-11-05 06:25:00,
2013-11-05 00:26:00,47.0,43.3,30.27,NNW,337,0.0,0.0,87,0.00,,,0.00,0,Wunderground v.1.15,2013-11-05 06:26:00,
2013-11-05 00:27:00,47.0,43.3,30.27,NNW,337,0.0,1.0,87,0.00,,,0.00,0,Wunderground v.1.15,2013-11-05 06:27:00,
2013-11-05 00:29:00,47.0,43.3,30.27,NNW,336,1.0,2.0,87,0.00,,,0.00,0,Wunderground v.1.15,2013-11-05 06:29:00,
2013-11-05 00:33:00,47.0,43.3,30.27,NNW,337,1.0,2.0,87,0.00,,,0.00,0,Wunderground v.1.15,2013-11-05 06:33:00,
2013-11-05 00:34:00,46.9,43.2,30.27,NNW,337,1.0,2.0,87,0.00,,,0.00,0,Wunderground v.1.15,2013-11-05 06:34:00,
2013-11-05 00:35:00,46.9,43.2,30.27,NNW,337,1.0,2.0,87,0.00,,,0.00,0,Wunderground v.1.15,2013-11-05 06:35:00,
2013-11-05 00:37:00,46.9,43.2,30.27,NNW,337,1.0,3.0,87,0.00,,,0.00,0,Wunderground v.1.15,2013-11-05 06:37:00,
2013-11-05 00:40:00,46.8,42.8,30.27,NNW,337,2.0,2.0,86,0.00,,,0.00,0,Wunderground v.1.15,2013-11-05 06:40:00,
2013-11-05 00:41:00,46.8,42.8,30.27,NNW,337,2.0,2.0,86,0.00,,,0.00,0,Wunderground v.1.15,2013-11-05 06:41:00,
2013-11-05 00:42:00,46.8,42.8,30.27,NNW,337,2.0,2.0,86,0.00,,,0.00,0,Wunderground v.1.15,2013-11-05 06:42:00,
2013-11-05 00:43:00,46.7,42.7,30.27,NNW,337,2.0,2.0,86,0.00,,,0.00,0,Wunderground v.1.15,2013-11-05 06:43:00,
2013-11-05 00:46:00,46.8,42.8,30.28,NNW,337,1.0,2.0,86,0.00,,,0.00,0,Wunderground v.1.15,2013-11-05 06:46:00,
2013-11-05 00:47:00,46.7,42.7,30.28,NNW,337,1.0,2.0,86,0.00,,,0.00,0,Wunderground v.1.15,2013-11-05 06:47:00,
2013-11-05 00:48:00,46.7,42.7,30.28,NNW,337,1.0,2.0,86,0.00,,,0.00,0,Wunderground v.1.15,2013-11-05 06:48:00,
2013-11-05 00:51:00,46.8,42.8,30.28,NNW,337,0.0,1.0,86,0.00,,,0.00,0,Wunderground v.1.15,2013-11-05 06:51:00,
2013-11-05 00:53:00,46.8,42.8,30.28,NNW,337,0.0,1.0,86,0.00,,,0.00,0,Wunderground v.1.15,2013-11-05 06:53:00,
2013-11-05 00:55:00,46.8,42.8,30.28,NNW,337,0.0,1.0,86,0.00,,,0.00,0,Wunderground v.1.15,2013-11-05 06:55:00,
2013-11-05 00:57:00,46.8,42.8,30.28,NNW,337,0.0,1.0,86,0.00,,,0.00,0,Wunderground v.1.15,2013-11-05 06:57:00,
2013-11-05 00:58:00,46.8,42.8,30.28,NNW,337,1.0,2.0,86,0.00,,,0.00,0,Wunderground v.1.15,2013-11-05 06:58:00,
2013-11-05 00:59:00,46.8,42.8,30.28,NNW,337,1.0,2.0,86,0.00,,,0.00,0,Wunderground v.1.15,2013-11-05 06:59:00,
2013-11-05 01:00:00,46.8,42.8,30.28,NNW,337,1.0,1.0,86,0.00,,,0.00,0,Wunderground v.1.15,2013-11-05 07:00:00,
2013-11-05 01:03:00,46.8,42.8,30.28,NNW,337,1.0,3.0,86,0.00,,,0.00,0,Wunderground v.1.15,2013-11-05 07:03:00,
2013-11-05 01:04:00,46.8,42.8,30.28,NNW,337,1.0,3.0,86,0.00,,,0.00,0,Wunderground v.1.15,2013-11-05 07:04:00,
2013-11-05 01:06:00,46.9,42.9,30.28,NNW,337,1.0,3.0,86,0.00,,,0.00,0,Wunderground v.1.15,2013-11-05 07:06:00,
2013-11-05 01:07:00,46.8,42.8,30.28,NNW,337,1.0,3.0,86,0.00,,,0.00,0,Wunderground v.1.15,2013-11-05 07:07:00,
2013-11-05 01:09:00,46.8,42.8,30.28,NNW,337,0.0,3.0,86,0.00,,,0.00,0,Wunderground v.1.15,2013-11-05 07:09:00,
2013-11-05 01:11:00,46.8,42.8,30.28,NNW,337,0.0,1.0,86,0.00,,,0.00,0,Wunderground v.1.15,2013-11-05 07:11:00,
2013-11-05 01:12:00,46.8,42.8,30.28,NNW,337,0.0,1.0,86,0.00,,,0.00,0,Wunderground v.1.15,2013-11-05 07:12:00,
2013-11-05 01:13:00,46.8,42.8,30.28,NNW,337,0.0,1.0,86,0.00,,,0.00,0,Wunderground v.1.15,2013-11-05 07:13:00,
2013-11-05 01:14:00,46.8,42.8,30.28,NNW,337,0.0,1.0,86,0.00,,,0.00,0,Wunderground v.1.15,2013-11-05 07:14:00,
2013-11-05 01:15:00,46.8,42.8,30.28,NNW,337,0.0,1.0,86,0.00,,,0.00,0,Wunderground v.1.15,2013-11-05 07:15:00,
2013-11-05 01:16:00,46.8,42.8,30.28,NNW,336,0.0,1.0,86,0.00,,,0.00,0,Wunderground v.1.15,2013-11-05 07:16:00,
2013-11-05 01:19:00,46.7,42.7,30.28,NNW,336,0.0,1.0,86,0.00,,,0.00,0,Wunderground v.1.15,2013-11-05 07:19:00,
2013-11-05 01:20:00,46.7,42.7,30.28,NNW,337,0.0,0.0,86,0.00,,,0.00,0,Wunderground v.1.15,2013-11-05 07:20:00,
2013-11-05 01:21:00,46.7,42.7,30.28,NNW,337,0.0,0.0,86,0.00,,,0.00,0,Wunderground v.1.15,2013-11-05 07:21:00,
2013-11-05 01:24:00,46.7,42.7,30.28,NNW,337,0.0,0.0,86,0.00,,,0.00,0,Wunderground v.1.15,2013-11-05 07:24:00,
2013-11-05 01:25:00,46.7,42.7,30.28,NNW,336,0.0,0.0,86,0.00,,,0.00,0,Wunderground v.1.15,2013-11-05 07:25:00,
2013-11-05 01:26:00,46.7,43.0,30.28,NNW,337,0.0,0.0,87,0.00,,,0.00,0,Wunderground v.1.15,2013-11-05 07:26:00,
2013-11-05 01:27:00,46.6,42.9,30.28,NNW,337,0.0,1.0,87,0.00,,,0.00,0,Wunderground v.1.15,2013-11-05 07:27:00,
2013-11-05 01:29:00,46.6,42.9,30.28,NNW,337,0.0,2.0,87,0.00,,,0.00,0,Wunderground v.1.15,2013-11-05 07:29:00,
2013-11-05 01:30:00,46.5,42.8,30.28,NNW,337,0.0,0.0,87,0.00,,,0.00,0,Wunderground v.1.15,2013-11-05 07:30:00,
2013-11-05 01:31:00,46.5,42.8,30.28,NNW,337,0.0,0.0,87,0.00,,,0.00,0,Wunderground v.1.15,2013-11-05 07:31:00,
2013-11-05 01:36:00,46.5,42.8,30.28,NNW,337,1.0,1.0,87,0.00,,,0.00,0,Wunderground v.1.15,2013-11-05 07:36:00,
2013-11-05 01:37:00,46.5,42.8,30.28,NNW,337,1.0,1.0,87,0.00,,,0.00,0,Wunderground v.1.15,2013-11-05 07:37:00,
2013-11-05 01:38:00,46.4,42.7,30.28,NNW,337,0.0,1.0,87,0.00,,,0.00,0,Wunderground v.1.15,2013-11-05 07:38:00,
2013-11-05 01:41:00,46.5,42.8,30.28,NNW,337,0.0,0.0,87,0.00,,,0.00,0,Wunderground v.1.15,2013-11-05 07:41:00,
2013-11-05 01:42:00,46.4,42.7,30.28,NNW,337,0.0,0.0,87,0.00,,,0.00,0,Wunderground v.1.15,2013-11-05 07:42:00,
2013-11-05 01:43:00,46.4,42.7,30.29,NNW,337,0.0,0.0,87,0.00,,,0.00,0,Wunderground v.1.15,2013-11-05 07:43:00,
2013-11-05 01:44:00,46.4,42.7,30.28,NNW,337,0.0,0.0,87,0.00,,,0.00,0,Wunderground v.1.15,2013-11-05 07:44:00,
2013-11-05 01:46:00,46.4,42.7,30.28,NNW,337,0.0,0.0,87,0.00,,,0.00,0,Wunderground v.1.15,2013-11-05 07:46:00,
2013-11-05 01:49:00,46.4,42.7,30.28,NNW,337,0.0,0.0,87,0.00,,,0.00,0,Wunderground v.1.15,2013-11-05 07:49:00,
2013-11-05 01:50:00,46.3,42.6,30.28,NNW,337,0.0,0.0,87,0.00,,,0.00,0,Wunderground v.1.15,2013-11-05 07:50:00,
2013-11-05 01:51:00,46.3,42.6,30.28,NNW,337,0.0,1.0,87,0.00,,,0.00,0,Wunderground v.1.15,2013-11-05 07:51:00,
2013-11-05 01:53:00,46.3,42.6,30.28,NNW,337,0.0,1.0,87,0.00,,,0.00,0,Wunderground v.1.15,2013-11-05 07:53:00,
2013-11-05 01:55:00,46.2,42.5,30.28,NNW,337,0.0,1.0,87,0.00,,,0.00,0,Wunderground v.1.15,2013-11-05 07:55:00,
2013-11-05 01:56:00,46.1,42.4,30.28,NNW,337,0.0,1.0,87,0.00,,,0.00,0,Wunderground v.1.15,2013-11-05 07:56:00,
2013-11-05 01:57:00,46.1,42.4,30.28,NNW,337,0.0,1.0,87,0.00,,,0.00,0,Wunderground v.1.15,2013-11-05 07:57:00,
2013-11-05 01:58:00,46.1,42.1,30.28,NNW,337,0.0,1.0,86,0.00,,,0.00,0,Wunderground v.1.15,2013-11-05 07:58:00,
2013-11-05 02:00:00,46.1,42.1,30.28,NNW,337,0.0,0.0,86,0.00,,,0.00,0,Wunderground v.1.15,2013-11-05 08:00:00,
2013-11-05 02:01:00,46.0,42.0,30.28,NNW,337,0.0,2.0,86,0.00,,,0.00,0,Wunderground v.1.15,2013-11-05 08:01:00,
2013-11-05 02:03:00,46.0,42.0,30.28,NNW,336,0.0,3.0,86,0.00,,,0.00,0,Wunderground v.1.15,2013-11-05 08:03:00,
2013-11-05 02:05:00,46.0,42.0,30.28,NNW,337,0.0,3.0,86,0.00,,,0.00,0,Wunderground v.1.15,2013-11-05 08:05:00,
2013-11-05 02:06:00,46.0,42.0,30.28,NNW,337,1.0,3.0,86,0.00,,,0.00,0,Wunderground v.1.15,2013-11-05 08:06:00,
2013-11-05 02:07:00,46.0,42.0,30.28,NNW,337,1.0,3.0,86,0.00,,,0.00,0,Wunderground v.1.15,2013-11-05 08:07:00,
2013-11-05 02:09:00,46.0,42.0,30.28,NNW,337,1.0,3.0,86,0.00,,,0.00,0,Wunderground v.1.15,2013-11-05 08:09:00,
2013-11-05 02:11:00,46.0,42.0,30.28,NNW,337,2.0,3.0,86,0.00,,,0.00,0,Wunderground v.1.15,2013-11-05 08:11:00,
2013-11-05 02:12:00,46.0,42.0,30.28,NNW,337,1.0,3.0,86,0.00,,,0.00,0,Wunderground v.1.15,2013-11-05 08:12:00,
2013-11-05 02:14:00,46.0,41.7,30.28,NNW,337,2.0,3.0,85,0.00,,,0.00,0,Wunderground v.1.15,2013-11-05 08:14:00,
2013-11-05 02:16:00,46.1,41.8,30.28,NNW,337,2.0,3.0,85,0.00,,,0.00,0,Wunderground v.1.15,2013-11-05 08:16:00,
2013-11-05 02:19:00,46.1,41.8,30.28,NNW,337,2.0,3.0,85,0.00,,,0.00,0,Wunderground v.1.15,2013-11-05 08:19:00,
2013-11-05 02:21:00,46.1,41.8,30.29,NNW,337,1.0,3.0,85,0.00,,,0.00,0,Wunderground v.1.15,2013-11-05 08:21:00,
2013-11-05 02:23:00,46.1,41.8,30.29,NNW,337,1.0,3.0,85,0.00,,,0.00,0,Wunderground v.1.15,2013-11-05 08:23:00,
2013-11-05 02:25:00,46.1,41.8,30.29,NNW,337,1.0,3.0,85,0.00,,,0.00,0,Wunderground v.1.15,2013-11-05 08:25:00,
2013-11-05 02:26:00,46.1,41.8,30.29,NNW,337,1.0,3.0,85,0.00,,,0.00,0,Wunderground v.1.15,2013-11-05 08:26:00,
2013-11-05 02:28:00,46.1,41.8,30.29,NNW,337,1.0,3.0,85,0.00,,,0.00,0,Wunderground v.1.15,2013-11-05 08:28:00,
2013-11-05 02:31:00,46.1,41.8,30.29,NNW,337,1.0,3.0,85,0.00,,,0.00,0,Wunderground v.1.15,2013-11-05 08:31:00,
2013-11-05 02:33:00,46.1,41.8,30.28,NNW,337,1.0,3.0,85,0.00,,,0.00,0,Wunderground v.1.15,2013-11-05 08:33:00,
2013-11-05 02:36:00,46.1,41.8,30.28,NNW,337,1.0,3.0,85,0.00,,,0.00,0,Wunderground v.1.15,2013-11-05 08:36:00,
2013-11-05 02:38:00,46.0,41.7,30.28,NNW,337,1.0,3.0,85,0.00,,,0.00,0,Wunderground v.1.15,2013-11-05 08:38:00,
2013-11-05 02:41:00,46.0,41.7,30.28,NNW,337,1.0,3.0,85,0.00,,,0.00,0,Wunderground v.1.15,2013-11-05 08:41:00,
2013-11-05 02:42:00,46.0,42.0,30.28,NNW,336,1.0,3.0,86,0.00,,,0.00,0,Wunderground v.1.15,2013-11-05 08:42:00,
2013-11-05 02:44:00,46.0,42.0,30.28,NNW,337,1.0,3.0,86,0.00,,,0.00,0,Wunderground v.1.15,2013-11-05 08:44:00,
2013-11-05 02:45:00,46.0,42.0,30.28,NNW,337,1.0,3.0,86,0.00,,,0.00,0,Wunderground v.1.15,2013-11-05 08:45:00,
2013-11-05 02:47:00,45.9,41.9,30.28,NNW,337,1.0,3.0,86,0.00,,,0.00,0,Wunderground v.1.15,2013-11-05 08:47:00,
2013-11-05 02:50:00,45.8,41.9,30.28,NNW,337,1.0,3.0,86,0.00,,,0.00,0,Wunderground v.1.15,2013-11-05 08:50:00,
2013-11-05 02:52:00,45.8,41.9,30.28,NNW,337,1.0,3.0,86,0.00,,,0.00,0,Wunderground v.1.15,2013-11-05 08:52:00,
2013-11-05 02:54:00,45.8,41.9,30.28,NNW,337,1.0,3.0,86,0.00,,,0.00,0,Wunderground v.1.15,2013-11-05 08:54:00,
2013-11-05 02:55:00,45.8,41.9,30.28,NNW,337,1.0,3.0,86,0.00,,,0.00,0,Wunderground v.1.15,2013-11-05 08:55:00,
2013-11-05 02:57:00,45.7,41.8,30.28,NNW,337,1.0,3.0,86,0.00,,,0.00,0,Wunderground v.1.15,2013-11-05 08:57:00,
2013-11-05 02:59:00,45.7,42.1,30.28,NNW,337,1.0,3.0,87,0.00,,,0.00,0,Wunderground v.1.15,2013-11-05 08:59:00,
2013-11-05 03:02:00,45.6,41.7,30.28,NNW,337,1.0,3.0,86,0.00,,,0.00,0,Wunderground v.1.15,2013-11-05 09:02:00,
2013-11-05 03:03:00,45.6,41.7,30.28,NNW,337,2.0,3.0,86,0.00,,,0.00,0,Wunderground v.1.15,2013-11-05 09:03:00,
2013-11-05 03:07:00,45.6,41.7,30.28,NNW,337,2.0,3.0,86,0.00,,,0.00,0,Wunderground v.1.15,2013-11-05 09:07:00,
2013-11-05 03:08:00,45.6,41.7,30.28,NNW,337,2.0,3.0,86,0.00,,,0.00,0,Wunderground v.1.15,2013-11-05 09:08:00,
2013-11-05 03:09:00,45.6,41.7,30.28,NNW,337,2.0,3.0,86,0.00,,,0.00,0,Wunderground v.1.15,2013-11-05 09:09:00,
2013-11-05 03:12:00,45.6,41.7,30.28,NNW,337,2.0,3.0,86,0.00,,,0.00,0,Wunderground v.1.15,2013-11-05 09:12:00,
2013-11-05 03:14:00,45.6,41.7,30.28,NNW,337,2.0,3.0,86,0.00,,,0.00,0,Wunderground v.1.15,2013-11-05 09:14:00,
2013-11-05 03:15:00,45.6,41.7,30.28,NNW,337,2.0,3.0,86,0.00,,,0.00,0,Wunderground v.1.15,2013-11-05 09:15:00,
2013-11-05 03:16:00,45.6,41.7,30.28,NNW,337,2.0,3.0,86,0.00,,,0.00,0,Wunderground v.1.15,2013-11-05 09:16:00,
2013-11-05 03:19:00,45.6,41.7,30.28,NNW,337,2.0,3.0,86,0.00,,,0.00,0,Wunderground v.1.15,2013-11-05 09:19:00,
2013-11-05 03:21:00,45.6,41.7,30.28,NNW,337,2.0,3.0,86,0.00,,,0.00,0,Wunderground v.1.15,2013-11-05 09:21:00,
2013-11-05 03:22:00,45.6,41.7,30.27,NNW,337,2.0,3.0,86,0.00,,,0.00,0,Wunderground v.1.15,2013-11-05 09:22:00,
2013-11-05 03:23:00,45.6,41.7,30.28,NNW,337,2.0,3.0,86,0.00,,,0.00,0,Wunderground v.1.15,2013-11-05 09:23:00,
2013-11-05 03:24:00,45.6,41.7,30.27,NNW,337,2.0,3.0,86,0.00,,,0.00,0,Wunderground v.1.15,2013-11-05 09:24:00,
2013-11-05 03:25:00,45.6,41.7,30.27,NNW,337,2.0,3.0,86,0.00,,,0.00,0,Wunderground v.1.15,2013-11-05 09:25:00,
2013-11-05 03:27:00,45.6,41.4,30.27,NNW,337,2.0,3.0,85,0.00,,,0.00,0,Wunderground v.1.15,2013-11-05 09:27:00,
2013-11-05 03:28:00,45.5,41.3,30.27,NNE,30,2.0,3.0,85,0.00,,,0.00,0,Wunderground v.1.15,2013-11-05 09:28:00,
2013-11-05 03:30:00,45.5,41.3,30.27,NNE,13,2.0,3.0,85,0.00,,,0.00,0,Wunderground v.1.15,2013-11-05 09:30:00,
2013-11-05 03:32:00,45.4,41.2,30.26,North,9,3.0,5.0,85,0.00,,,0.00,0,Wunderground v.1.15,2013-11-05 09:32:00,
2013-11-05 03:33:00,45.4,41.2,30.26,NNE,13,3.0,5.0,85,0.00,,,0.00,0,Wunderground v.1.15,2013-11-05 09:33:00,
2013-11-05 03:34:00,45.4,41.2,30.26,NNE,13,3.0,5.0,85,0.00,,,0.00,0,Wunderground v.1.15,2013-11-05 09:34:00,
2013-11-05 03:36:00,45.2,41.0,30.26,NNE,12,3.0,5.0,85,0.00,,,0.00,0,Wunderground v.1.15,2013-11-05 09:36:00,
2013-11-05 03:38:00,45.2,41.3,30.26,NE,51,3.0,5.0,86,0.00,,,0.00,0,Wunderground v.1.15,2013-11-05 09:38:00,
2013-11-05 03:40:00,45.1,41.2,30.26,NNE,32,3.0,4.0,86,0.00,,,0.00,0,Wunderground v.1.15,2013-11-05 09:40:00,
2013-11-05 03:41:00,45.0,41.1,30.26,NE,34,4.0,4.0,86,0.00,,,0.00,0,Wunderground v.1.15,2013-11-05 09:41:00,
2013-11-05 03:42:00,45.0,41.1,30.26,NE,38,4.0,4.0,86,0.00,,,0.00,0,Wunderground v.1.15,2013-11-05 09:42:00,
2013-11-05 03:43:00,45.0,41.1,30.26,NE,38,4.0,4.0,86,0.00,,,0.00,0,Wunderground v.1.15,2013-11-05 09:43:00,
2013-11-05 03:46:00,45.0,41.1,30.26,NE,44,3.0,4.0,86,0.00,,,0.00,0,Wunderground v.1.15,2013-11-05 09:46:00,
2013-11-05 03:47:00,45.0,40.8,30.26,NE,41,3.0,4.0,85,0.00,,,0.00,0,Wunderground v.1.15,2013-11-05 09:47:00,
2013-11-05 03:48:00,45.0,40.8,30.26,NE,41,3.0,4.0,85,0.00,,,0.00,0,Wunderground v.1.15,2013-11-05 09:48:00,
2013-11-05 03:49:00,45.0,40.8,30.26,NE,41,3.0,4.0,85,0.00,,,0.00,0,Wunderground v.1.15,2013-11-05 09:49:00,
2013-11-05 03:52:00,45.0,40.8,30.27,NE,36,3.0,4.0,85,0.00,,,0.00,0,Wunderground v.1.15,2013-11-05 09:52:00,
2013-11-05 03:55:00,45.1,40.9,30.27,ENE,58,3.0,5.0,85,0.00,,,0.00,0,Wunderground v.1.15,2013-11-05 09:55:00,
2013-11-05 03:57:00,45.1,40.6,30.27,NE,44,3.0,5.0,84,0.00,,,0.00,0,Wunderground v.1.15,2013-11-05 09:57:00,
2013-11-05 03:58:00,45.2,40.7,30.27,NE,44,3.0,5.0,84,0.00,,,0.00,0,Wunderground v.1.15,2013-11-05 09:58:00,
2013-11-05 04:02:00,45.2,40.7,30.27,NE,51,4.0,6.0,84,0.00,,,0.00,0,Wunderground v.1.15,2013-11-05 10:02:00,
2013-11-05 04:03:00,45.3,40.7,30.27,NE,44,4.0,6.0,84,0.00,,,0.00,0,Wunderground v.1.15,2013-11-05 10:03:00,
2013-11-05 04:06:00,45.4,40.5,30.27,NE,55,4.0,6.0,83,0.00,,,0.00,0,Wunderground v.1.15,2013-11-05 10:06:00,
2013-11-05 04:07:00,45.4,40.5,30.27,NE,55,4.0,6.0,83,0.00,,,0.00,0,Wunderground v.1.15,2013-11-05 10:07:00,
2013-11-05 04:10:00,45.4,40.5,30.27,NE,42,4.0,4.0,83,0.00,,,0.00,0,Wunderground v.1.15,2013-11-05 10:10:00,
2013-11-05 04:11:00,45.4,40.5,30.27,ENE,61,4.0,4.0,83,0.00,,,0.00,0,Wunderground v.1.15,2013-11-05 10:11:00,
2013-11-05 04:12:00,45.4,40.5,30.27,NE,53,4.0,4.0,83,0.00,,,0.00,0,Wunderground v.1.15,2013-11-05 10:12:00,
2013-11-05 04:13:00,45.5,40.6,30.27,NE,46,4.0,4.0,83,0.00,,,0.00,0,Wunderground v.1.15,2013-11-05 10:13:00,
2013-11-05 04:14:00,45.5,40.6,30.27,NE,44,4.0,4.0,83,0.00,,,0.00,0,Wunderground v.1.15,2013-11-05 10:14:00,
2013-11-05 04:15:00,45.5,40.6,30.27,NE,44,4.0,4.0,83,0.00,,,0.00,0,Wunderground v.1.15,2013-11-05 10:15:00,
2013-11-05 04:16:00,45.5,40.6,30.27,NE,44,4.0,5.0,83,0.00,,,0.00,0,Wunderground v.1.15,2013-11-05 10:16:00,
2013-11-05 04:19:00,45.6,40.4,30.27,NNE,29,4.0,5.0,82,0.00,,,0.00,0,Wunderground v.1.15,2013-11-05 10:19:00,
2013-11-05 04:20:00,45.6,40.4,30.27,NE,51,4.0,4.0,82,0.00,,,0.00,0,Wunderground v.1.15,2013-11-05 10:20:00,
2013-11-05 04:22:00,45.7,40.5,30.27,NE,53,4.0,6.0,82,0.00,,,0.00,0,Wunderground v.1.15,2013-11-05 10:22:00,
2013-11-05 04:24:00,45.8,40.6,30.27,ENE,65,4.0,6.0,82,0.00,,,0.00,0,Wunderground v.1.15,2013-11-05 10:24:00,
2013-11-05 04:25:00,45.8,40.6,30.27,NE,50,5.0,6.0,82,0.00,,,0.00,0,Wunderground v.1.15,2013-11-05 10:25:00,
2013-11-05 04:27:00,45.8,40.6,30.27,NE,44,5.0,6.0,82,0.00,,,0.00,0,Wunderground v.1.15,2013-11-05 10:27:00,
2013-11-05 04:30:00,45.9,40.4,30.27,NE,54,5.0,5.0,81,0.00,,,0.00,0,Wunderground v.1.15,2013-11-05 10:30:00,
2013-11-05 04:32:00,45.9,40.4,30.27,ENE,57,4.0,5.0,81,0.00,,,0.00,0,Wunderground v.1.15,2013-11-05 10:32:00,
2013-11-05 04:33:00,45.9,40.4,30.27,NE,53,4.0,5.0,81,0.00,,,0.00,0,Wunderground v.1.15,2013-11-05 10:33:00,
2013-11-05 04:34:00,45.9,40.4,30.27,NE,43,4.0,6.0,81,0.00,,,0.00,0,Wunderground v.1.15,2013-11-05 10:34:00,
2013-11-05 04:35:00,46.0,40.5,30.27,NE,56,4.0,6.0,81,0.00,,,0.00,0,Wunderground v.1.15,2013-11-05 10:35:00,
2013-11-05 04:37:00,46.0,40.5,30.27,NE,47,4.0,6.0,81,0.00,,,0.00,0,Wunderground v.1.15,2013-11-05 10:37:00,
2013-11-05 04:41:00,46.0,40.5,30.27,NE,54,5.0,5.0,81,0.00,,,0.00,0,Wunderground v.1.15,2013-11-05 10:41:00,
2013-11-05 04:42:00,46.0,40.5,30.27,NE,53,5.0,5.0,81,0.00,,,0.00,0,Wunderground v.1.15,2013-11-05 10:42:00,
2013-11-05 04:46:00,46.0,40.5,30.27,NE,35,4.0,7.0,81,0.00,,,0.00,0,Wunderground v.1.15,2013-11-05 10:46:00,
2013-11-05 04:47:00,46.0,40.5,30.27,ENE,67,4.0,7.0,81,0.00,,,0.00,0,Wunderground v.1.15,2013-11-05 10:47:00,
2013-11-05 04:48:00,46.0,40.5,30.27,ENE,76,4.0,7.0,81,0.00,,,0.00,0,Wunderground v.1.15,2013-11-05 10:48:00,
2013-11-05 04:49:00,46.0,40.5,30.27,ENE,67,4.0,7.0,81,0.00,,,0.00,0,Wunderground v.1.15,2013-11-05 10:49:00,
2013-11-05 04:51:00,46.0,40.5,30.28,ENE,65,4.0,4.0,81,0.00,,,0.00,0,Wunderground v.1.15,2013-11-05 10:51:00,
2013-11-05 04:52:00,46.0,40.5,30.28,ENE,65,3.0,5.0,81,0.00,,,0.00,0,Wunderground v.1.15,2013-11-05 10:52:00,
2013-11-05 04:53:00,46.0,40.5,30.28,ENE,65,3.0,5.0,81,0.00,,,0.00,0,Wunderground v.1.15,2013-11-05 10:53:00,
2013-11-05 04:56:00,46.0,40.5,30.28,ENE,65,3.0,5.0,81,0.00,,,0.00,0,Wunderground v.1.15,2013-11-05 10:56:00,
2013-11-05 04:57:00,46.0,40.5,30.28,ENE,65,3.0,5.0,81,0.00,,,0.00,0,Wunderground v.1.15,2013-11-05 10:57:00,
2013-11-05 04:58:00,46.0,40.5,30.28,ENE,65,3.0,5.0,81,0.00,,,0.00,0,Wunderground v.1.15,2013-11-05 10:58:00,
2013-11-05 04:59:00,46.0,40.5,30.28,ENE,65,3.0,5.0,81,0.00,,,0.00,0,Wunderground v.1.15,2013-11-05 10:59:00,
2013-11-05 05:01:00,46.0,40.5,30.28,ENE,65,2.0,7.0,81,0.00,,,0.00,0,Wunderground v.1.15,2013-11-05 11:01:00,
2013-11-05 05:03:00,46.0,40.5,30.28,ENE,65,2.0,7.0,81,0.00,,,0.00,0,Wunderground v.1.15,2013-11-05 11:03:00,
2013-11-05 05:05:00,46.0,40.5,30.28,ENE,65,2.0,7.0,81,0.00,,,0.00,0,Wunderground v.1.15,2013-11-05 11:05:00,
2013-11-05 05:07:00,46.0,40.5,30.28,ENE,65,2.0,7.0,81,0.00,,,0.00,0,Wunderground v.1.15,2013-11-05 11:07:00,
2013-11-05 05:11:00,46.0,40.5,30.29,ENE,65,1.0,1.0,81,0.00,,,0.00,0,Wunderground v.1.15,2013-11-05 11:11:00,
2013-11-05 05:12:00,46.0,40.5,30.28,ENE,65,1.0,1.0,81,0.00,,,0.00,0,Wunderground v.1.15,2013-11-05 11:12:00,
2013-11-05 05:13:00,46.0,40.5,30.28,ENE,65,1.0,1.0,81,0.00,,,0.00,0,Wunderground v.1.15,2013-11-05 11:13:00,
2013-11-05 05:14:00,45.9,40.4,30.28,ENE,65,1.0,1.0,81,0.00,,,0.00,0,Wunderground v.1.15,2013-11-05 11:14:00,
2013-11-05 05:16:00,46.0,40.5,30.29,ENE,65,0.0,1.0,81,0.00,,,0.00,0,Wunderground v.1.15,2013-11-05 11:16:00,
2013-11-05 05:18:00,45.9,40.4,30.29,ENE,65,0.0,1.0,81,0.00,,,0.00,0,Wunderground v.1.15,2013-11-05 11:18:00,
2013-11-05 05:19:00,45.9,40.4,30.29,ENE,65,0.0,1.0,81,0.00,,,0.00,0,Wunderground v.1.15,2013-11-05 11:19:00,
2013-11-05 05:21:00,45.9,40.4,30.29,ENE,65,0.0,0.0,81,0.00,,,0.00,0,Wunderground v.1.15,2013-11-05 11:21:00,
2013-11-05 05:22:00,45.9,40.4,30.29,ENE,65,0.0,0.0,81,0.00,,,0.00,0,Wunderground v.1.15,2013-11-05 11:22:00,
2013-11-05 05:23:00,45.9,40.4,30.29,ENE,65,0.0,0.0,81,0.00,,,0.00,0,Wunderground v.1.15,2013-11-05 11:23:00,
2013-11-05 05:24:00,45.9,40.4,30.29,ENE,65,0.0,0.0,81,0.00,,,0.00,0,Wunderground v.1.15,2013-11-05 11:24:00,
2013-11-05 05:27:00,45.9,40.4,30.29,ENE,65,0.0,3.0,81,0.00,,,0.00,0,Wunderground v.1.15,2013-11-05 11:27:00,
2013-11-05 05:28:00,46.0,40.5,30.29,ENE,65,0.0,3.0,81,0.00,,,0.00,0,Wunderground v.1.15,2013-11-05 11:28:00,
2013-11-05 05:29:00,45.9,40.4,30.29,ENE,65,1.0,3.0,81,0.00,,,0.00,0,Wunderground v.1.15,2013-11-05 11:29:00,
2013-11-05 05:32:00,46.0,40.5,30.29,ENE,65,1.0,2.0,81,0.00,,,0.00,0,Wunderground v.1.15,2013-11-05 11:32:00,
2013-11-05 05:33:00,46.0,40.5,30.29,ENE,65,1.0,2.0,81,0.00,,,0.00,0,Wunderground v.1.15,2013-11-05 11:33:00,
2013-11-05 05:34:00,46.0,40.5,30.29,ENE,65,1.0,2.0,81,0.00,,,0.00,0,Wunderground v.1.15,2013-11-05 11:34:00,
2013-11-05 05:36:00,46.0,40.5,30.29,ENE,65,1.0,2.0,81,0.00,,,0.00,0,Wunderground v.1.15,2013-11-05 11:36:00,
2013-11-05 05:37:00,46.0,40.5,30.29,ENE,65,1.0,2.0,81,0.00,,,0.00,0,Wunderground v.1.15,2013-11-05 11:37:00,
2013-11-05 05:39:00,46.1,40.6,30.29,ENE,65,1.0,3.0,81,0.00,,,0.00,0,Wunderground v.1.15,2013-11-05 11:39:00,
2013-11-05 05:41:00,46.1,40.6,30.29,ENE,65,1.0,1.0,81,0.00,,,0.00,0,Wunderground v.1.15,2013-11-05 11:41:00,
2013-11-05 05:42:00,46.1,40.6,30.28,ENE,65,1.0,1.0,81,0.00,,,0.00,0,Wunderground v.1.15,2013-11-05 11:42:00,
2013-11-05 05:46:00,46.1,40.6,30.28,ENE,65,1.0,4.0,81,0.00,,,0.00,0,Wunderground v.1.15,2013-11-05 11:46:00,
2013-11-05 05:48:00,46.1,40.6,30.28,ENE,65,2.0,4.0,81,0.00,,,0.00,0,Wunderground v.1.15,2013-11-05 11:48:00,
2013-11-05 05:49:00,46.1,40.6,30.28,ENE,65,2.0,4.0,81,0.00,,,0.00,0,Wunderground v.1.15,2013-11-05 11:49:00,
2013-11-05 05:50:00,46.1,40.6,30.28,ENE,65,2.0,3.0,81,0.00,,,0.00,0,Wunderground v.1.15,2013-11-05 11:50:00,
2013-11-05 05:52:00,46.1,40.6,30.28,NE,53,3.0,3.0,81,0.00,,,0.00,0,Wunderground v.1.15,2013-11-05 11:52:00,
2013-11-05 05:55:00,46.1,40.6,30.27,ENE,75,3.0,3.0,81,0.00,,,0.00,0,Wunderground v.1.15,2013-11-05 11:55:00,
2013-11-05 05:56:00,46.1,40.6,30.27,ENE,71,3.0,5.0,81,0.00,,,0.00,0,Wunderground v.1.15,2013-11-05 11:56:00,
2013-11-05 05:58:00,46.1,40.6,30.27,ENE,58,3.0,5.0,81,0.00,,,0.00,0,Wunderground v.1.15,2013-11-05 11:58:00,
2013-11-05 05:59:00,46.1,40.6,30.27,East,82,4.0,5.0,81,0.00,,,0.00,0,Wunderground v.1.15,2013-11-05 11:59:00,
2013-11-05 06:01:00,46.0,40.8,30.27,ENE,71,4.0,8.0,82,0.00,,,0.00,0,Wunderground v.1.15,2013-11-05 12:01:00,
2013-11-05 06:04:00,46.0,40.8,30.27,NE,47,4.0,8.0,82,0.00,,,0.00,0,Wunderground v.1.15,2013-11-05 12:04:00,
2013-11-05 06:05:00,45.9,40.7,30.27,NE,53,4.0,8.0,82,0.00,,,0.00,0,Wunderground v.1.15,2013-11-05 12:05:00,
2013-11-05 06:06:00,46.0,40.8,30.27,ENE,57,4.0,8.0,82,0.00,,,0.00,0,Wunderground v.1.15,2013-11-05 12:06:00,
2013-11-05 06:07:00,45.9,40.7,30.27,ENE,63,4.0,8.0,82,0.00,,,0.00,0,Wunderground v.1.15,2013-11-05 12:07:00,
2013-11-05 06:08:00,46.0,40.8,30.27,ENE,65,4.0,8.0,82,0.00,,,0.00,0,Wunderground v.1.15,2013-11-05 12:08:00,
2013-11-05 06:10:00,45.9,40.7,30.27,ENE,68,3.0,4.0,82,0.00,,,0.00,0,Wunderground v.1.15,2013-11-05 12:10:00,
2013-11-05 06:11:00,45.9,40.7,30.27,ENE,68,3.0,4.0,82,0.00,,,0.00,0,Wunderground v.1.15,2013-11-05 12:11:00,
2013-11-05 06:12:00,45.9,40.7,30.27,ENE,70,4.0,4.0,82,0.00,,,0.00,0,Wunderground v.1.15,2013-11-05 12:12:00,
2013-11-05 06:13:00,45.9,40.7,30.27,NE,53,4.0,4.0,82,0.00,,,0.00,0,Wunderground v.1.15,2013-11-05 12:13:00,
2013-11-05 06:14:00,45.8,40.6,30.27,ENE,67,3.0,5.0,82,0.00,,,0.00,0,Wunderground v.1.15,2013-11-05 12:14:00,
2013-11-05 06:17:00,45.8,40.6,30.27,NE,53,4.0,5.0,82,0.00,,,0.00,0,Wunderground v.1.15,2013-11-05 12:17:00,
2013-11-05 06:18:00,45.8,40.6,30.27,NE,42,4.0,5.0,82,0.00,,,0.00,0,Wunderground v.1.15,2013-11-05 12:18:00,
2013-11-05 06:19:00,45.8,40.6,30.27,NE,47,4.0,5.0,82,0.00,,,0.00,0,Wunderground v.1.15,2013-11-05 12:19:00,
2013-11-05 06:20:00,45.8,40.6,30.27,NE,56,4.0,4.0,82,0.00,,,0.00,0,Wunderground v.1.15,2013-11-05 12:20:00,
2013-11-05 06:22:00,45.8,40.6,30.27,NE,42,4.0,4.0,82,0.00,,,0.00,0,Wunderground v.1.15,2013-11-05 12:22:00,
2013-11-05 06:24:00,45.8,40.9,30.27,NE,48,4.0,4.0,83,0.00,,,0.00,0,Wunderground v.1.15,2013-11-05 12:24:00,
2013-11-05 06:25:00,45.8,40.9,30.27,NE,48,4.0,4.0,83,0.00,,,0.00,0,Wunderground v.1.15,2013-11-05 12:25:00,
2013-11-05 06:27:00,45.8,40.9,30.27,ENE,61,4.0,4.0,83,0.00,,,0.00,0,Wunderground v.1.15,2013-11-05 12:27:00,
2013-11-05 06:28:00,45.8,40.9,30.27,ENE,59,4.0,4.0,83,0.00,,,0.00,0,Wunderground v.1.15,2013-11-05 12:28:00,
2013-11-05 06:29:00,45.8,40.9,30.27,ENE,59,4.0,4.0,83,0.00,,,0.00,0,Wunderground v.1.15,2013-11-05 12:29:00,
2013-11-05 06:32:00,45.8,40.9,30.27,ENE,57,3.0,3.0,83,0.00,,,0.00,0,Wunderground v.1.15,2013-11-05 12:32:00,
2013-11-05 06:33:00,45.7,40.8,30.27,ENE,59,3.0,3.0,83,0.00,,,0.00,0,Wunderground v.1.15,2013-11-05 12:33:00,
2013-11-05 06:34:00,45.7,40.8,30.28,ENE,59,3.0,3.0,83,0.00,,,0.00,0,Wunderground v.1.15,2013-11-05 12:34:00,
2013-11-05 06:37:00,45.7,40.8,30.28,ENE,59,2.0,3.0,83,0.00,,,0.00,0,Wunderground v.1.15,2013-11-05 12:37:00,
2013-11-05 06:40:00,45.7,40.8,30.28,ENE,59,3.0,3.0,83,0.00,,,0.00,0,Wunderground v.1.15,2013-11-05 12:40:00,
2013-11-05 06:42:00,45.8,40.9,30.28,ENE,59,3.0,4.0,83,0.00,,,0.00,0,Wunderground v.1.15,2013-11-05 12:42:00,
2013-11-05 06:45:00,45.8,40.9,30.27,ENE,74,3.0,4.0,83,0.00,,,0.00,0,Wunderground v.1.15,2013-11-05 12:45:00,
2013-11-05 06:47:00,45.8,40.9,30.27,NNE,21,3.0,4.0,83,0.00,,,0.00,0,Wunderground v.1.15,2013-11-05 12:47:00,
2013-11-05 06:49:00,45.8,40.9,30.27,ENE,57,3.0,7.0,83,0.00,,,0.00,0,Wunderground v.1.15,2013-11-05 12:49:00,
2013-11-05 06:51:00,45.8,40.9,30.27,ENE,68,4.0,5.0,83,0.00,,,0.00,0,Wunderground v.1.15,2013-11-05 12:51:00,
2013-11-05 06:52:00,45.8,40.9,30.27,NE,49,4.0,7.0,83,0.00,,,0.00,0,Wunderground v.1.15,2013-11-05 12:52:00,
2013-11-05 06:53:00,45.8,40.9,30.27,NE,39,4.0,7.0,83,0.00,,,0.00,0,Wunderground v.1.15,2013-11-05 12:53:00,
2013-11-05 06:54:00,45.7,40.8,30.27,ENE,69,4.0,7.0,83,0.00,,,0.00,0,Wunderground v.1.15,2013-11-05 12:54:00,
2013-11-05 06:55:00,45.8,40.9,30.27,NE,40,4.0,7.0,83,0.00,,,0.00,0,Wunderground v.1.15,2013-11-05 12:55:00,
2013-11-05 06:57:00,45.8,40.9,30.27,ENE,67,4.0,7.0,83,0.00,,,0.00,0,Wunderground v.1.15,2013-11-05 12:57:00,
2013-11-05 06:59:00,45.8,40.9,30.27,ENE,65,5.0,7.0,83,0.00,,,0.00,0,Wunderground v.1.15,2013-11-05 12:59:00,
2013-11-05 07:01:00,45.8,40.9,30.27,NE,52,5.0,6.0,83,0.00,,,0.00,0,Wunderground v.1.15,2013-11-05 13:01:00,
2013-11-05 07:02:00,45.8,40.9,30.27,NE,47,5.0,7.0,83,0.00,,,0.00,0,Wunderground v.1.15,2013-11-05 13:02:00,
2013-11-05 07:04:00,45.8,40.9,30.27,ENE,59,4.0,7.0,83,0.00,,,0.00,0,Wunderground v.1.15,2013-11-05 13:04:00,
2013-11-05 07:05:00,45.8,40.9,30.27,ENE,71,4.0,7.0,83,0.00,,,0.00,0,Wunderground v.1.15,2013-11-05 13:05:00,
2013-11-05 07:08:00,45.9,41.0,30.27,ENE,76,5.0,7.0,83,0.00,,,0.00,0,Wunderground v.1.15,2013-11-05 13:08:00,
2013-11-05 07:10:00,45.9,41.0,30.27,East,81,4.0,4.0,83,0.00,,,0.00,0,Wunderground v.1.15,2013-11-05 13:10:00,
2013-11-05 07:12:00,45.9,41.0,30.27,East,79,4.0,6.0,83,0.00,,,0.00,0,Wunderground v.1.15,2013-11-05 13:12:00,
2013-11-05 07:14:00,45.9,41.0,30.27,NE,53,5.0,7.0,83,0.00,,,0.00,0,Wunderground v.1.15,2013-11-05 13:14:00,
2013-11-05 07:16:00,45.9,41.0,30.27,NE,51,5.0,7.0,83,0.00,,,0.00,0,Wunderground v.1.15,2013-11-05 13:16:00,
2013-11-05 07:19:00,46.0,41.1,30.27,East,99,5.0,7.0,83,0.00,,,0.00,0,Wunderground v.1.15,2013-11-05 13:19:00,
2013-11-05 07:20:00,46.0,41.1,30.27,ENE,66,5.0,5.0,83,0.00,,,0.00,0,Wunderground v.1.15,2013-11-05 13:20:00,
2013-11-05 07:21:00,46.0,41.1,30.27,East,79,5.0,5.0,83,0.00,,,0.00,0,Wunderground v.1.15,2013-11-05 13:21:00,
2013-11-05 07:22:00,46.0,41.1,30.27,NE,49,5.0,6.0,83,0.00,,,0.00,0,Wunderground v.1.15,2013-11-05 13:22:00,
2013-11-05 07:25:00,45.9,41.0,30.27,ENE,76,5.0,6.0,83,0.00,,,0.00,5,Wunderground v.1.15,2013-11-05 13:25:00,
2013-11-05 07:26:00,46.0,41.1,30.26,ENE,74,5.0,6.0,83,0.00,,,0.00,5,Wunderground v.1.15,2013-11-05 13:26:00,
2013-11-05 07:28:00,46.0,41.1,30.27,NE,55,5.0,6.0,83,0.00,,,0.00,5,Wunderground v.1.15,2013-11-05 13:28:00,
2013-11-05 07:29:00,46.0,40.8,30.26,NE,35,5.0,6.0,82,0.00,,,0.00,7,Wunderground v.1.15,2013-11-05 13:29:00,
2013-11-05 07:31:00,46.0,40.8,30.27,ENE,61,6.0,6.0,82,0.00,,,0.00,7,Wunderground v.1.15,2013-11-05 13:31:00,
2013-11-05 07:34:00,46.0,40.8,30.26,ENE,57,5.0,6.0,82,0.00,,,0.00,11,Wunderground v.1.15,2013-11-05 13:34:00,
2013-11-05 07:35:00,46.1,40.9,30.26,ENE,67,5.0,6.0,82,0.00,,,0.00,11,Wunderground v.1.15,2013-11-05 13:35:00,
2013-11-05 07:36:00,46.1,40.9,30.27,NE,42,5.0,6.0,82,0.00,,,0.00,11,Wunderground v.1.15,2013-11-05 13:36:00,
2013-11-05 07:39:00,46.1,40.9,30.27,NE,52,5.0,6.0,82,0.00,,,0.00,14,Wunderground v.1.15,2013-11-05 13:39:00,
2013-11-05 07:41:00,46.1,40.9,30.27,ENE,66,5.0,6.0,82,0.00,,,0.00,16,Wunderground v.1.15,2013-11-05 13:41:00,
2013-11-05 07:42:00,46.1,40.9,30.27,ENE,57,5.0,6.0,82,0.00,,,0.00,16,Wunderground v.1.15,2013-11-05 13:42:00,
2013-11-05 07:47:00,46.2,41.0,30.26,ENE,57,5.0,7.0,82,0.00,,,0.00,12,Wunderground v.1.15,2013-11-05 13:47:00,
2013-11-05 07:49:00,46.2,41.0,30.27,ENE,69,5.0,7.0,82,0.00,,,0.00,11,Wunderground v.1.15,2013-11-05 13:49:00,
2013-11-05 07:50:00,46.2,41.0,30.27,NE,45,5.0,5.0,82,0.00,,,0.00,11,Wunderground v.1.15,2013-11-05 13:50:00,
2013-11-05 07:52:00,46.2,41.0,30.27,NE,39,5.0,7.0,82,0.00,,,0.00,12,Wunderground v.1.15,2013-11-05 13:52:00,
2013-11-05 07:53:00,46.2,40.7,30.27,NE,46,5.0,7.0,81,0.00,,,0.00,14,Wunderground v.1.15,2013-11-05 13:53:00,
2013-11-05 07:54:00,46.2,41.0,30.27,ENE,65,5.0,7.0,82,0.00,,,0.00,14,Wunderground v.1.15,2013-11-05 13:54:00,
2013-11-05 07:55:00,46.2,41.0,30.27,NE,53,5.0,7.0,82,0.00,,,0.00,14,Wunderground v.1.15,2013-11-05 13:55:00,
2013-11-05 07:58:00,46.2,41.0,30.26,NE,49,5.0,7.0,82,0.00,,,0.00,14,Wunderground v.1.15,2013-11-05 13:58:00,
2013-11-05 08:00:00,46.1,40.9,30.26,NE,47,5.0,7.0,82,0.00,,,0.00,16,Wunderground v.1.15,2013-11-05 14:00:00,
2013-11-05 08:01:00,46.1,40.6,30.26,ENE,63,5.0,8.0,81,0.00,,,0.00,18,Wunderground v.1.15,2013-11-05 14:01:00,
2013-11-05 08:03:00,46.1,40.6,30.27,ENE,74,5.0,8.0,81,0.00,,,0.00,18,Wunderground v.1.15,2013-11-05 14:03:00,
2013-11-05 08:04:00,46.1,40.6,30.27,ENE,70,5.0,8.0,81,0.00,,,0.00,18,Wunderground v.1.15,2013-11-05 14:04:00,
2013-11-05 08:05:00,46.1,40.6,30.27,NE,42,5.0,8.0,81,0.00,,,0.00,18,Wunderground v.1.15,2013-11-05 14:05:00,
2013-11-05 08:07:00,46.1,40.6,30.27,ENE,63,5.0,8.0,81,0.00,,,0.00,18,Wunderground v.1.15,2013-11-05 14:07:00,
2013-11-05 08:09:00,46.1,40.9,30.27,ENE,60,5.0,8.0,82,0.00,,,0.00,21,Wunderground v.1.15,2013-11-05 14:09:00,
2013-11-05 08:10:00,46.1,40.9,30.27,NE,56,5.0,5.0,82,0.00,,,0.00,18,Wunderground v.1.15,2013-11-05 14:10:00,
2013-11-05 08:11:00,46.1,40.9,30.27,ENE,61,5.0,5.0,82,0.00,,,0.00,18,Wunderground v.1.15,2013-11-05 14:11:00,
2013-11-05 08:16:00,46.1,40.6,30.27,East,88,6.0,7.0,81,0.00,,,0.00,26,Wunderground v.1.15,2013-11-05 14:16:00,
2013-11-05 08:17:00,46.1,40.6,30.27,ENE,73,5.0,7.0,81,0.00,,,0.00,28,Wunderground v.1.15,2013-11-05 14:17:00,
2013-11-05 08:19:00,46.2,41.0,30.27,ENE,65,5.0,7.0,82,0.00,,,0.00,25,Wunderground v.1.15,2013-11-05 14:19:00,
2013-11-05 08:21:00,46.2,41.0,30.27,ENE,59,5.0,5.0,82,0.00,,,0.00,25,Wunderground v.1.15,2013-11-05 14:21:00,
2013-11-05 08:24:00,46.2,41.0,30.27,ENE,59,4.0,7.0,82,0.00,,,0.00,33,Wunderground v.1.15,2013-11-05 14:24:00,
2013-11-05 08:26:00,46.2,41.0,30.27,ENE,73,4.0,7.0,82,0.00,,,0.00,33,Wunderground v.1.15,2013-11-05 14:26:00,
2013-11-05 08:28:00,46.1,40.9,30.27,ENE,59,4.0,7.0,82,0.00,,,0.00,21,Wunderground v.1.15,2013-11-05 14:28:00,
2013-11-05 08:30:00,46.1,40.9,30.27,East,100,4.0,6.0,82,0.00,,,0.00,16,Wunderground v.1.15,2013-11-05 14:30:00,
2013-11-05 08:31:00,46.1,40.9,30.27,East,90,5.0,6.0,82,0.00,,,0.00,16,Wunderground v.1.15,2013-11-05 14:31:00,
2013-11-05 08:32:00,46.2,41.0,30.27,ENE,76,5.0,8.0,82,0.00,,,0.00,16,Wunderground v.1.15,2013-11-05 14:32:00,
2013-11-05 08:34:00,46.1,40.9,30.27,East,97,5.0,8.0,82,0.00,,,0.00,18,Wunderground v.1.15,2013-11-05 14:34:00,
2013-11-05 08:37:00,46.1,40.9,30.26,East,93,5.0,8.0,82,0.00,,,0.00,23,Wunderground v.1.15,2013-11-05 14:37:00,
2013-11-05 08:38:00,46.1,40.9,30.26,ENE,69,5.0,8.0,82,0.00,,,0.00,25,Wunderground v.1.15,2013-11-05 14:38:00,
2013-11-05 08:41:00,46.1,40.9,30.26,NE,46,5.0,7.0,82,0.00,,,0.00,23,Wunderground v.1.15,2013-11-05 14:41:00,
2013-11-05 08:42:00,46.1,40.9,30.26,ENE,57,5.0,7.0,82,0.00,,,0.00,18,Wunderground v.1.15,2013-11-05 14:42:00,
2013-11-05 08:44:00,46.1,40.9,30.26,East,96,5.0,7.0,82,0.00,,,0.00,14,Wunderground v.1.15,2013-11-05 14:44:00,
2013-11-05 08:45:00,46.1,40.9,30.26,ENE,74,5.0,7.0,82,0.00,,,0.00,16,Wunderground v.1.15,2013-11-05 14:45:00,
2013-11-05 08:47:00,46.1,40.9,30.26,ENE,63,5.0,11.0,82,0.00,,,0.00,19,Wunderground v.1.15,2013-11-05 14:47:00,
2013-11-05 08:49:00,46.1,40.9,30.26,ENE,68,5.0,11.0,82,0.00,,,0.00,26,Wunderground v.1.15,2013-11-05 14:49:00,
2013-11-05 08:50:00,46.0,40.8,30.25,ENE,69,5.0,7.0,82,0.00,,,0.00,28,Wunderground v.1.15,2013-11-05 14:50:00,
2013-11-05 08:51:00,46.0,40.8,30.26,ENE,67,6.0,7.0,82,0.00,,,0.00,30,Wunderground v.1.15,2013-11-05 14:51:00,
2013-11-05 08:53:00,46.0,41.1,30.25,NE,53,6.0,7.0,83,0.00,,,0.00,33,Wunderground v.1.15,2013-11-05 14:53:00,
2013-11-05 08:55:00,46.0,41.1,30.25,ENE,67,6.0,8.0,83,0.00,,,0.00,44,Wunderground v.1.15,2013-11-05 14:55:00,
2013-11-05 08:57:00,46.1,41.2,30.25,East,81,6.0,8.0,83,0.00,,,0.00,47,Wunderground v.1.15,2013-11-05 14:57:00,
2013-11-05 08:59:00,46.1,41.2,30.25,ENE,71,6.0,8.0,83,0.00,,,0.00,51,Wunderground v.1.15,2013-11-05 14:59:00,
2013-11-05 09:00:00,46.1,41.2,30.25,ENE,57,6.0,6.0,83,0.00,,,0.00,53,Wunderground v.1.15,2013-11-05 15:00:00,
2013-11-05 09:01:00,46.1,41.2,30.25,ENE,76,6.0,11.0,83,0.00,,,0.00,56,Wunderground v.1.15,2013-11-05 15:01:00,
2013-11-05 09:02:00,46.1,41.2,30.25,NE,55,6.0,11.0,83,0.00,,,0.00,58,Wunderground v.1.15,2013-11-05 15:02:00,
2013-11-05 09:05:00,46.2,41.3,30.24,ENE,67,6.0,11.0,83,0.00,,,0.00,69,Wunderground v.1.15,2013-11-05 15:05:00,
2013-11-05 09:06:00,46.2,41.3,30.24,NE,55,6.0,11.0,83,0.00,,,0.00,67,Wunderground v.1.15,2013-11-05 15:06:00,
2013-11-05 09:07:00,46.2,41.3,30.24,East,80,6.0,11.0,83,0.00,,,0.00,62,Wunderground v.1.15,2013-11-05 15:07:00,
2013-11-05 09:08:00,46.2,41.3,30.24,ENE,63,5.0,11.0,83,0.00,,,0.00,58,Wunderground v.1.15,2013-11-05 15:08:00,
2013-11-05 09:13:00,46.3,41.1,30.24,ENE,63,6.0,8.0,82,0.00,,,0.00,44,Wunderground v.1.15,2013-11-05 15:13:00,
2013-11-05 09:14:00,46.3,41.1,30.24,East,93,5.0,8.0,82,0.00,,,0.00,42,Wunderground v.1.15,2013-11-05 15:14:00,
2013-11-05 09:15:00,46.3,41.1,30.24,East,88,5.0,8.0,82,0.00,,,0.00,40,Wunderground v.1.15,2013-11-05 15:15:00,
2013-11-05 09:18:00,46.4,41.2,30.24,NE,42,5.0,8.0,82,0.00,,,0.00,39,Wunderground v.1.15,2013-11-05 15:18:00,
2013-11-05 09:19:00,46.4,41.2,30.24,East,97,5.0,8.0,82,0.00,,,0.00,39,Wunderground v.1.15,2013-11-05 15:19:00,
2013-11-05 09:20:00,46.4,41.2,30.24,ENE,78,5.0,5.0,82,0.00,,,0.00,39,Wunderground v.1.15,2013-11-05 15:20:00,
2013-11-05 09:22:00,46.4,41.2,30.24,ENE,68,5.0,6.0,82,0.00,,,0.00,40,Wunderground v.1.15,2013-11-05 15:22:00,
2013-11-05 09:25:00,46.4,41.2,30.24,ESE,112,5.0,8.0,82,0.00,,,0.00,44,Wunderground v.1.15,2013-11-05 15:25:00,
2013-11-05 09:26:00,46.5,41.3,30.23,ENE,68,5.0,8.0,82,0.00,,,0.00,46,Wunderground v.1.15,2013-11-05 15:26:00,
2013-11-05 09:27:00,46.5,41.0,30.23,ENE,63,6.0,10.0,81,0.00,,,0.00,47,Wunderground v.1.15,2013-11-05 15:27:00,
2013-11-05 09:30:00,46.5,41.0,30.23,ENE,63,6.0,6.0,81,0.00,,,0.00,47,Wunderground v.1.15,2013-11-05 15:30:00,
2013-11-05 09:32:00,46.5,41.3,30.24,ENE,77,6.0,6.0,82,0.00,,,0.00,44,Wunderground v.1.15,2013-11-05 15:32:00,
2013-11-05 09:33:00,46.5,41.0,30.23,ENE,74,6.0,6.0,81,0.00,,,0.00,44,Wunderground v.1.15,2013-11-05 15:33:00,
2013-11-05 09:34:00,46.5,41.3,30.23,ENE,71,6.0,7.0,82,0.00,,,0.00,46,Wunderground v.1.15,2013-11-05 15:34:00,
2013-11-05 09:36:00,46.5,41.3,30.23,ENE,77,6.0,7.0,82,0.00,,,0.00,47,Wunderground v.1.15,2013-11-05 15:36:00,
2013-11-05 09:38:00,46.5,41.3,30.23,East,94,5.0,7.0,82,0.00,,,0.00,44,Wunderground v.1.15,2013-11-05 15:38:00,
2013-11-05 09:39:00,46.5,41.3,30.23,East,96,5.0,7.0,82,0.00,,,0.00,46,Wunderground v.1.15,2013-11-05 15:39:00,
2013-11-05 09:40:00,46.5,41.3,30.23,East,92,5.0,5.0,82,0.00,,,0.00,44,Wunderground v.1.15,2013-11-05 15:40:00,
2013-11-05 09:41:00,46.4,41.2,30.23,ESE,107,5.0,7.0,82,0.00,,,0.00,44,Wunderground v.1.15,2013-11-05 15:41:00,
2013-11-05 09:42:00,46.4,41.5,30.23,East,80,6.0,7.0,83,0.00,,,0.00,44,Wunderground v.1.15,2013-11-05 15:42:00,
2013-11-05 09:45:00,46.3,41.7,30.23,ENE,59,6.0,8.0,84,0.00,,,0.00,40,Wunderground v.1.15,2013-11-05 15:45:00,
2013-11-05 09:46:00,46.3,41.7,30.23,NE,56,6.0,8.0,84,0.00,,,0.01,39,Wunderground v.1.15,2013-11-05 15:46:00,
2013-11-05 09:47:00,46.2,41.6,30.23,ENE,69,6.0,8.0,84,0.00,,,0.01,40,Wunderground v.1.15,2013-11-05 15:47:00,
2013-11-05 09:48:00,46.2,41.6,30.23,NE,55,6.0,8.0,84,0.00,,,0.01,39,Wunderground v.1.15,2013-11-05 15:48:00,
2013-11-05 09:52:00,46.0,41.7,30.23,ENE,68,6.0,6.0,85,0.00,,,0.01,35,Wunderground v.1.15,2013-11-05 15:52:00,
2013-11-05 09:53:00,46.0,42.0,30.22,East,92,5.0,6.0,86,0.00,,,0.01,26,Wunderground v.1.15,2013-11-05 15:53:00,
2013-11-05 09:54:00,45.9,41.9,30.22,ENE,67,5.0,6.0,86,0.07,,,0.02,25,Wunderground v.1.15,2013-11-05 15:54:00,
2013-11-05 09:55:00,45.9,41.9,30.22,ENE,63,5.0,6.0,86,0.07,,,0.02,25,Wunderground v.1.15,2013-11-05 15:55:00,
2013-11-05 09:58:00,45.8,42.2,30.22,ENE,61,5.0,6.0,87,0.07,,,0.02,32,Wunderground v.1.15,2013-11-05 15:58:00,
2013-11-05 09:59:00,45.7,42.1,30.22,ENE,61,5.0,6.0,87,0.07,,,0.02,37,Wunderground v.1.15,2013-11-05 15:59:00,
2013-11-05 10:03:00,45.6,42.3,30.22,ENE,74,5.0,12.0,88,0.06,,,0.02,35,Wunderground v.1.15,2013-11-05 16:03:00,
2013-11-05 10:04:00,45.6,42.3,30.22,ENE,78,5.0,12.0,88,0.06,,,0.02,39,Wunderground v.1.15,2013-11-05 16:04:00,
2013-11-05 10:05:00,45.5,42.2,30.22,East,80,5.0,12.0,88,0.05,,,0.02,39,Wunderground v.1.15,2013-11-05 16:05:00,
2013-11-05 10:06:00,45.5,42.2,30.22,East,80,5.0,12.0,88,0.05,,,0.02,39,Wunderground v.1.15,2013-11-05 16:06:00,
2013-11-05 10:09:00,45.5,42.4,30.21,ENE,67,6.0,12.0,89,0.04,,,0.02,32,Wunderground v.1.15,2013-11-05 16:09:00,
2013-11-05 10:11:00,45.4,42.3,30.22,ENE,65,6.0,7.0,89,0.00,,,0.02,25,Wunderground v.1.15,2013-11-05 16:11:00,
2013-11-05 10:12:00,45.4,42.3,30.21,ENE,68,6.0,7.0,89,0.00,,,0.02,25,Wunderground v.1.15,2013-11-05 16:12:00,
2013-11-05 10:13:00,45.4,42.3,30.21,ENE,62,6.0,7.0,89,0.00,,,0.02,25,Wunderground v.1.15,2013-11-05 16:13:00,
2013-11-05 10:14:00,45.4,42.3,30.21,ENE,59,6.0,7.0,89,0.00,,,0.02,23,Wunderground v.1.15,2013-11-05 16:14:00,
2013-11-05 10:15:00,45.4,42.3,30.21,ENE,76,6.0,7.0,89,0.00,,,0.02,23,Wunderground v.1.15,2013-11-05 16:15:00,
2013-11-05 10:17:00,45.3,42.2,30.21,ENE,64,6.0,7.0,89,0.00,,,0.02,21,Wunderground v.1.15,2013-11-05 16:17:00,
2013-11-05 10:18:00,45.3,42.5,30.21,ENE,78,5.0,7.0,90,0.00,,,0.02,19,Wunderground v.1.15,2013-11-05 16:18:00,
2013-11-05 10:22:00,45.3,42.5,30.21,ENE,57,5.0,6.0,90,0.00,,,0.02,16,Wunderground v.1.15,2013-11-05 16:22:00,
2013-11-05 10:23:00,45.3,42.5,30.21,East,86,5.0,6.0,90,0.00,,,0.02,18,Wunderground v.1.15,2013-11-05 16:23:00,
2013-11-05 10:24:00,45.3,42.5,30.21,ENE,77,5.0,6.0,90,0.00,,,0.02,19,Wunderground v.1.15,2013-11-05 16:24:00,
2013-11-05 10:25:00,45.3,42.5,30.21,ENE,71,5.0,6.0,90,0.00,,,0.02,19,Wunderground v.1.15,2013-11-05 16:25:00,
2013-11-05 10:27:00,45.3,42.5,30.21,East,90,4.0,7.0,90,0.00,,,0.03,19,Wunderground v.1.15,2013-11-05 16:27:00,
2013-11-05 10:28:00,45.3,42.5,30.21,East,94,4.0,7.0,90,0.00,,,0.03,21,Wunderground v.1.15,2013-11-05 16:28:00,
2013-11-05 10:29:00,45.3,42.5,30.21,ENE,57,4.0,7.0,90,0.00,,,0.03,23,Wunderground v.1.15,2013-11-05 16:29:00,
2013-11-05 10:30:00,45.4,42.6,30.21,ENE,63,4.0,6.0,90,0.00,,,0.03,23,Wunderground v.1.15,2013-11-05 16:30:00,
2013-11-05 10:31:00,45.3,42.5,30.21,ENE,71,4.0,6.0,90,0.00,,,0.03,25,Wunderground v.1.15,2013-11-05 16:31:00,
2013-11-05 10:33:00,45.4,42.6,30.21,NE,50,4.0,6.0,90,0.00,,,0.03,23,Wunderground v.1.15,2013-11-05 16:33:00,
2013-11-05 10:34:00,45.4,42.6,30.21,ENE,73,4.0,6.0,90,0.00,,,0.03,21,Wunderground v.1.15,2013-11-05 16:34:00,
2013-11-05 10:37:00,45.4,42.9,30.21,East,88,4.0,6.0,91,0.00,,,0.03,23,Wunderground v.1.15,2013-11-05 16:37:00,
2013-11-05 10:38:00,45.4,42.9,30.21,ENE,65,4.0,6.0,91,0.00,,,0.03,23,Wunderground v.1.15,2013-11-05 16:38:00,
2013-11-05 10:41:00,45.4,42.9,30.21,ENE,76,4.0,5.0,91,0.00,,,0.03,26,Wunderground v.1.15,2013-11-05 16:41:00,
2013-11-05 10:42:00,45.4,42.9,30.20,ENE,68,4.0,5.0,91,0.00,,,0.03,26,Wunderground v.1.15,2013-11-05 16:42:00,
2013-11-05 10:43:00,45.4,42.9,30.20,ENE,68,4.0,5.0,91,0.00,,,0.03,26,Wunderground v.1.15,2013-11-05 16:43:00,
2013-11-05 10:44:00,45.4,42.9,30.20,ENE,68,4.0,7.0,91,0.04,,,0.04,26,Wunderground v.1.15,2013-11-05 16:44:00,
2013-11-05 10:45:00,45.4,42.9,30.20,ENE,63,4.0,7.0,91,0.04,,,0.04,44,Wunderground v.1.15,2013-11-05 16:45:00,
2013-11-05 10:48:00,45.4,42.9,30.20,ENE,66,4.0,7.0,91,0.04,,,0.04,42,Wunderground v.1.15,2013-11-05 16:48:00,
2013-11-05 10:49:00,45.4,42.9,30.20,ENE,67,4.0,7.0,91,0.04,,,0.04,42,Wunderground v.1.15,2013-11-05 16:49:00,
2013-11-05 10:50:00,45.4,43.2,30.20,ENE,77,4.0,4.0,92,0.04,,,0.04,47,Wunderground v.1.15,2013-11-05 16:50:00,
2013-11-05 10:52:00,45.5,43.3,30.20,ENE,65,4.0,4.0,92,0.04,,,0.04,56,Wunderground v.1.15,2013-11-05 16:52:00,
2013-11-05 10:54:00,45.5,43.3,30.19,ENE,69,4.0,7.0,92,0.04,,,0.04,53,Wunderground v.1.15,2013-11-05 16:54:00,
2013-11-05 10:55:00,45.5,43.3,30.19,East,92,4.0,7.0,92,0.04,,,0.04,54,Wunderground v.1.15,2013-11-05 16:55:00,
2013-11-05 10:56:00,45.5,43.3,30.19,ENE,71,4.0,7.0,92,0.04,,,0.04,47,Wunderground v.1.15,2013-11-05 16:56:00,
2013-11-05 11:00:00,45.5,43.3,30.19,ENE,65,4.0,4.0,92,0.04,,,0.05,35,Wunderground v.1.15,2013-11-05 17:00:00,
2013-11-05 11:01:00,45.5,43.3,30.19,ENE,71,4.0,5.0,92,0.04,,,0.05,37,Wunderground v.1.15,2013-11-05 17:01:00,
2013-11-05 11:05:00,45.6,43.4,30.19,ESE,103,4.0,14.0,92,0.04,,,0.05,37,Wunderground v.1.15,2013-11-05 17:05:00,
2013-11-05 11:06:00,45.6,43.4,30.19,East,88,4.0,14.0,92,0.04,,,0.05,33,Wunderground v.1.15,2013-11-05 17:06:00,
2013-11-05 11:07:00,45.6,43.4,30.18,ENE,67,4.0,14.0,92,0.04,,,0.05,33,Wunderground v.1.15,2013-11-05 17:07:00,
2013-11-05 11:08:00,45.6,43.4,30.19,ENE,62,4.0,14.0,92,0.04,,,0.05,32,Wunderground v.1.15,2013-11-05 17:08:00,
2013-11-05 11:12:00,45.6,43.7,30.18,East,84,4.0,5.0,93,0.04,,,0.05,23,Wunderground v.1.15,2013-11-05 17:12:00,
2013-11-05 11:13:00,45.7,43.8,30.18,ENE,70,4.0,5.0,93,0.04,,,0.05,23,Wunderground v.1.15,2013-11-05 17:13:00,
2013-11-05 11:14:00,45.7,43.8,30.18,East,89,4.0,5.0,93,0.04,,,0.05,23,Wunderground v.1.15,2013-11-05 17:14:00,
2013-11-05 11:18:00,45.7,43.8,30.18,East,94,4.0,5.0,93,0.00,,,0.05,32,Wunderground v.1.15,2013-11-05 17:18:00,
2013-11-05 11:19:00,45.7,43.8,30.18,East,100,4.0,6.0,93,0.00,,,0.05,37,Wunderground v.1.15,2013-11-05 17:19:00,
2013-11-05 11:21:00,45.7,43.8,30.18,ENE,65,4.0,4.0,93,0.00,,,0.05,42,Wunderground v.1.15,2013-11-05 17:21:00,
2013-11-05 11:23:00,45.8,43.9,30.17,East,93,4.0,5.0,93,0.00,,,0.05,35,Wunderground v.1.15,2013-11-05 17:23:00,
2013-11-05 11:24:00,45.8,43.9,30.17,East,86,4.0,5.0,93,0.00,,,0.05,35,Wunderground v.1.15,2013-11-05 17:24:00,
2013-11-05 11:26:00,45.8,43.9,30.17,ENE,71,4.0,5.0,93,0.00,,,0.05,28,Wunderground v.1.15,2013-11-05 17:26:00,
2013-11-05 11:28:00,45.9,44.0,30.17,East,84,5.0,5.0,93,0.00,,,0.05,33,Wunderground v.1.15,2013-11-05 17:28:00,
2013-11-05 11:29:00,45.9,44.0,30.17,East,92,4.0,5.0,93,0.00,,,0.05,33,Wunderground v.1.15,2013-11-05 17:29:00,
2013-11-05 11:30:00,45.9,44.0,30.16,East,101,4.0,6.0,93,0.00,,,0.05,37,Wunderground v.1.15,2013-11-05 17:30:00,
2013-11-05 11:31:00,45.9,44.0,30.16,East,82,4.0,6.0,93,0.00,,,0.05,37,Wunderground v.1.15,2013-11-05 17:31:00,
2013-11-05 11:33:00,46.0,44.1,30.16,East,90,4.0,6.0,93,0.00,,,0.05,33,Wunderground v.1.15,2013-11-05 17:33:00,
2013-11-05 11:34:00,46.0,44.1,30.16,ESE,109,4.0,6.0,93,0.00,,,0.05,37,Wunderground v.1.15,2013-11-05 17:34:00,
2013-11-05 11:37:00,46.1,44.2,30.16,ESE,102,5.0,6.0,93,0.00,,,0.05,40,Wunderground v.1.15,2013-11-05 17:37:00,
2013-11-05 11:39:00,46.1,44.5,30.15,East,86,4.0,6.0,94,0.00,,,0.05,44,Wunderground v.1.15,2013-11-05 17:39:00,
2013-11-05 11:40:00,46.2,44.6,30.15,East,98,5.0,5.0,94,0.00,,,0.05,40,Wunderground v.1.15,2013-11-05 17:40:00,
2013-11-05 11:41:00,46.2,44.6,30.15,ENE,65,5.0,5.0,94,0.00,,,0.05,42,Wunderground v.1.15,2013-11-05 17:41:00,
2013-11-05 11:43:00,46.3,44.7,30.15,ESE,102,5.0,6.0,94,0.00,,,0.05,51,Wunderground v.1.15,2013-11-05 17:43:00,
2013-11-05 11:45:00,46.4,44.8,30.14,ESE,105,4.0,6.0,94,0.00,,,0.05,53,Wunderground v.1.15,2013-11-05 17:45:00,
2013-11-05 11:47:00,46.4,44.8,30.14,East,90,5.0,6.0,94,0.00,,,0.05,56,Wunderground v.1.15,2013-11-05 17:47:00,
2013-11-05 11:48:00,46.5,44.9,30.14,East,93,5.0,7.0,94,0.00,,,0.05,54,Wunderground v.1.15,2013-11-05 17:48:00,
2013-11-05 11:50:00,46.5,44.9,30.14,East,97,5.0,6.0,94,0.00,,,0.05,51,Wunderground v.1.15,2013-11-05 17:50:00,
2013-11-05 11:51:00,46.5,44.9,30.14,East,89,5.0,6.0,94,0.00,,,0.05,47,Wunderground v.1.15,2013-11-05 17:51:00,
2013-11-05 11:52:00,46.5,44.9,30.14,East,94,5.0,7.0,94,0.00,,,0.05,44,Wunderground v.1.15,2013-11-05 17:52:00,
2013-11-05 11:54:00,46.6,45.0,30.14,ENE,68,5.0,7.0,94,0.00,,,0.05,42,Wunderground v.1.15,2013-11-05 17:54:00,
2013-11-05 11:55:00,46.6,45.0,30.13,ENE,76,5.0,7.0,94,0.00,,,0.05,54,Wunderground v.1.15,2013-11-05 17:55:00,
2013-11-05 11:56:00,46.7,45.1,30.13,ESE,105,5.0,7.0,94,0.00,,,0.05,62,Wunderground v.1.15,2013-11-05 17:56:00,
2013-11-05 11:59:00,46.8,45.2,30.13,ESE,105,5.0,7.0,94,0.00,,,0.05,67,Wunderground v.1.15,2013-11-05 17:59:00,
2013-11-05 12:01:00,46.8,45.2,30.13,East,96,5.0,12.0,94,0.00,,,0.05,60,Wunderground v.1.15,2013-11-05 18:01:00,
2013-11-05 12:02:00,46.9,45.3,30.13,East,98,5.0,12.0,94,0.00,,,0.05,63,Wunderground v.1.15,2013-11-05 18:02:00,
2013-11-05 12:03:00,46.9,45.3,30.13,ENE,75,5.0,12.0,94,0.00,,,0.05,76,Wunderground v.1.15,2013-11-05 18:03:00,
2013-11-05 12:04:00,46.9,45.3,30.13,ENE,74,5.0,12.0,94,0.00,,,0.05,79,Wunderground v.1.15,2013-11-05 18:04:00,
2013-11-05 12:07:00,47.1,45.5,30.12,ENE,65,5.0,12.0,94,0.00,,,0.05,90,Wunderground v.1.15,2013-11-05 18:07:00,
2013-11-05 12:08:00,47.1,45.5,30.12,ESE,116,5.0,12.0,94,0.00,,,0.05,83,Wunderground v.1.15,2013-11-05 18:08:00,
2013-11-05 12:09:00,47.2,45.6,30.12,East,92,5.0,12.0,94,0.00,,,0.05,79,Wunderground v.1.15,2013-11-05 18:09:00,
2013-11-05 12:12:00,47.2,45.6,30.12,East,89,5.0,6.0,94,0.00,,,0.05,76,Wunderground v.1.15,2013-11-05 18:12:00,
2013-11-05 12:14:00,47.3,45.7,30.12,ENE,75,5.0,6.0,94,0.00,,,0.05,53,Wunderground v.1.15,2013-11-05 18:14:00,
2013-11-05 12:15:00,47.3,45.9,30.12,East,100,5.0,6.0,95,0.00,,,0.05,51,Wunderground v.1.15,2013-11-05 18:15:00,
2013-11-05 12:16:00,47.3,45.9,30.11,East,90,5.0,6.0,95,0.00,,,0.05,47,Wunderground v.1.15,2013-11-05 18:16:00,
2013-11-05 12:18:00,47.4,46.0,30.11,East,99,5.0,6.0,95,0.00,,,0.05,47,Wunderground v.1.15,2013-11-05 18:18:00,
2013-11-05 12:19:00,47.4,46.0,30.11,East,90,5.0,6.0,95,0.00,,,0.05,51,Wunderground v.1.15,2013-11-05 18:19:00,
2013-11-05 12:21:00,47.4,46.0,30.11,East,95,4.0,5.0,95,0.00,,,0.05,49,Wunderground v.1.15,2013-11-05 18:21:00,
2013-11-05 12:23:00,47.5,46.1,30.11,ENE,69,4.0,5.0,95,0.00,,,0.05,54,Wunderground v.1.15,2013-11-05 18:23:00,
2013-11-05 12:25:00,47.6,46.2,30.10,East,82,4.0,5.0,95,0.00,,,0.05,46,Wunderground v.1.15,2013-11-05 18:25:00,
2013-11-05 12:26:00,47.6,46.2,30.10,East,82,4.0,5.0,95,0.00,,,0.05,47,Wunderground v.1.15,2013-11-05 18:26:00,
2013-11-05 12:28:00,47.6,46.2,30.10,ESE,105,4.0,5.0,95,0.00,,,0.05,53,Wunderground v.1.15,2013-11-05 18:28:00,
2013-11-05 12:32:00,47.7,46.3,30.10,ESE,105,4.0,5.0,95,0.00,,,0.05,30,Wunderground v.1.15,2013-11-05 18:32:00,
2013-11-05 12:34:00,47.8,46.4,30.10,East,99,4.0,5.0,95,0.00,,,0.05,28,Wunderground v.1.15,2013-11-05 18:34:00,
2013-11-05 12:35:00,47.8,46.4,30.10,ESE,108,4.0,5.0,95,0.00,,,0.05,30,Wunderground v.1.15,2013-11-05 18:35:00,
2013-11-05 12:36:00,47.8,46.4,30.10,ESE,105,4.0,5.0,95,0.00,,,0.05,28,Wunderground v.1.15,2013-11-05 18:36:00,
2013-11-05 12:37:00,47.8,46.4,30.10,ESE,113,4.0,5.0,95,0.00,,,0.06,23,Wunderground v.1.15,2013-11-05 18:37:00,
2013-11-05 12:40:00,47.9,46.5,30.09,ENE,68,4.0,4.0,95,0.00,,,0.06,28,Wunderground v.1.15,2013-11-05 18:40:00,
2013-11-05 12:41:00,47.9,46.5,30.09,ESE,104,4.0,4.0,95,0.00,,,0.06,30,Wunderground v.1.15,2013-11-05 18:41:00,
2013-11-05 12:42:00,47.9,46.5,30.09,East,92,4.0,4.0,95,0.00,,,0.06,25,Wunderground v.1.15,2013-11-05 18:42:00,
2013-11-05 12:45:00,48.0,46.6,30.09,East,93,4.0,5.0,95,0.00,,,0.06,23,Wunderground v.1.15,2013-11-05 18:45:00,
2013-11-05 12:46:00,48.0,46.6,30.09,East,86,4.0,5.0,95,0.00,,,0.06,25,Wunderground v.1.15,2013-11-05 18:46:00,
2013-11-05 12:47:00,48.1,46.7,30.09,ESE,112,4.0,6.0,95,0.00,,,0.06,26,Wunderground v.1.15,2013-11-05 18:47:00,
2013-11-05 12:48:00,48.1,46.7,30.08,East,101,5.0,6.0,95,0.00,,,0.06,23,Wunderground v.1.15,2013-11-05 18:48:00,
2013-11-05 12:51:00,48.1,46.7,30.08,East,97,5.0,8.0,95,0.05,,,0.07,21,Wunderground v.1.15,2013-11-05 18:51:00,
2013-11-05 12:52:00,48.2,47.9,30.08,East,100,5.0,8.0,99,0.05,,,0.07,18,Wunderground v.1.15,2013-11-05 18:52:00,
2013-11-05 12:53:00,48.2,46.8,30.08,ESE,102,5.0,8.0,95,0.05,,,0.07,19,Wunderground v.1.15,2013-11-05 18:53:00,
2013-11-05 12:57:00,48.3,46.9,30.08,ESE,103,5.0,8.0,95,0.08,,,0.08,14,Wunderground v.1.15,2013-11-05 18:57:00,
2013-11-05 12:59:00,48.4,47.0,30.08,ESE,113,5.0,8.0,95,0.08,,,0.08,11,Wunderground v.1.15,2013-11-05 18:59:00,
2013-11-05 13:00:00,48.4,47.0,30.08,East,87,5.0,5.0,95,0.08,,,0.08,12,Wunderground v.1.15,2013-11-05 19:00:00,
2013-11-05 13:02:00,48.4,47.0,30.08,East,101,4.0,11.0,95,0.13,,,0.09,18,Wunderground v.1.15,2013-11-05 19:02:00,
2013-11-05 13:03:00,48.4,47.0,30.08,East,100,4.0,11.0,95,0.13,,,0.09,19,Wunderground v.1.15,2013-11-05 19:03:00,
2013-11-05 13:07:00,48.5,47.1,30.08,East,85,4.0,11.0,95,0.18,,,0.10,16,Wunderground v.1.15,2013-11-05 19:07:00,
2013-11-05 13:08:00,48.5,47.1,30.08,ESE,104,4.0,11.0,95,0.16,,,0.11,18,Wunderground v.1.15,2013-11-05 19:08:00,
2013-11-05 13:09:00,48.6,47.2,30.07,East,101,4.0,11.0,95,0.16,,,0.11,19,Wunderground v.1.15,2013-11-05 19:09:00,
2013-11-05 13:10:00,48.6,47.2,30.07,ESE,105,4.0,6.0,95,0.16,,,0.11,21,Wunderground v.1.15,2013-11-05 19:10:00,
2013-11-05 13:13:00,48.7,47.3,30.07,East,98,4.0,6.0,95,0.14,,,0.12,32,Wunderground v.1.15,2013-11-05 19:13:00,
2013-11-05 13:14:00,48.7,47.3,30.07,ESE,118,3.0,6.0,95,0.14,,,0.12,28,Wunderground v.1.15,2013-11-05 19:14:00,
2013-11-05 13:15:00,48.7,47.3,30.07,ESE,111,3.0,6.0,95,0.14,,,0.12,32,Wunderground v.1.15,2013-11-05 19:15:00,
2013-11-05 13:18:00,48.8,47.4,30.06,ESE,115,3.0,6.0,95,0.21,,,0.13,33,Wunderground v.1.15,2013-11-05 19:18:00,
2013-11-05 13:20:00,48.9,47.5,30.06,ENE,59,3.0,3.0,95,0.12,,,0.13,42,Wunderground v.1.15,2013-11-05 19:20:00,
2013-11-05 13:23:00,49.0,47.6,30.06,ENE,72,3.0,5.0,95,0.09,,,0.14,49,Wunderground v.1.15,2013-11-05 19:23:00,
2013-11-05 13:26:00,49.1,47.7,30.05,ENE,59,4.0,5.0,95,0.09,,,0.14,53,Wunderground v.1.15,2013-11-05 19:26:00,
2013-11-05 13:27:00,49.1,47.7,30.05,ESE,107,4.0,5.0,95,0.09,,,0.14,54,Wunderground v.1.15,2013-11-05 19:27:00,
2013-11-05 13:29:00,49.2,47.8,30.05,ESE,121,4.0,7.0,95,0.08,,,0.14,54,Wunderground v.1.15,2013-11-05 19:29:00,
2013-11-05 13:31:00,49.3,47.9,30.05,East,82,4.0,6.0,95,0.07,,,0.14,49,Wunderground v.1.15,2013-11-05 19:31:00,
2013-11-05 13:32:00,49.3,47.9,30.05,ESE,109,4.0,6.0,95,0.06,,,0.15,46,Wunderground v.1.15,2013-11-05 19:32:00,
2013-11-05 13:33:00,49.4,48.0,30.05,East,88,4.0,6.0,95,0.06,,,0.15,44,Wunderground v.1.15,2013-11-05 19:33:00,
2013-11-05 13:34:00,49.4,48.0,30.05,ENE,73,4.0,6.0,95,0.06,,,0.15,40,Wunderground v.1.15,2013-11-05 19:34:00,
2013-11-05 13:35:00,49.4,48.0,30.05,ENE,74,4.0,6.0,95,0.06,,,0.15,37,Wunderground v.1.15,2013-11-05 19:35:00,
2013-11-05 13:39:00,49.5,48.1,30.05,NE,53,5.0,6.0,95,0.06,,,0.15,39,Wunderground v.1.15,2013-11-05 19:39:00,
2013-11-05 13:40:00,49.5,48.4,30.04,ESE,103,5.0,5.0,96,0.06,,,0.15,39,Wunderground v.1.15,2013-11-05 19:40:00,
2013-11-05 13:41:00,49.6,48.2,30.04,ESE,104,5.0,5.0,95,0.06,,,0.15,39,Wunderground v.1.15,2013-11-05 19:41:00,
2013-11-05 13:42:00,49.6,48.5,30.04,East,79,5.0,5.0,96,0.06,,,0.15,39,Wunderground v.1.15,2013-11-05 19:42:00,
2013-11-05 13:46:00,49.6,48.2,30.04,East,87,5.0,5.0,95,0.04,,,0.15,39,Wunderground v.1.15,2013-11-05 19:46:00,
2013-11-05 13:48:00,49.7,48.6,30.04,East,99,4.0,5.0,96,0.04,,,0.15,40,Wunderground v.1.15,2013-11-05 19:48:00,
2013-11-05 13:49:00,49.7,48.6,30.04,East,84,4.0,5.0,96,0.00,,,0.15,44,Wunderground v.1.15,2013-11-05 19:49:00,
2013-11-05 13:50:00,49.7,48.6,30.04,East,82,4.0,4.0,96,0.00,,,0.15,42,Wunderground v.1.15,2013-11-05 19:50:00,
2013-11-05 13:51:00,49.7,48.6,30.03,East,81,4.0,4.0,96,0.00,,,0.15,42,Wunderground v.1.15,2013-11-05 19:51:00,
2013-11-05 13:53:00,49.8,48.7,30.03,ESE,102,4.0,4.0,96,0.00,,,0.15,37,Wunderground v.1.15,2013-11-05 19:53:00,
2013-11-05 13:54:00,49.8,48.7,30.03,East,96,4.0,5.0,96,0.00,,,0.15,39,Wunderground v.1.15,2013-11-05 19:54:00,
2013-11-05 13:57:00,49.9,48.5,30.03,ESE,103,4.0,5.0,95,0.00,,,0.15,37,Wunderground v.1.15,2013-11-05 19:57:00,
2013-11-05 13:58:00,50.0,48.6,30.03,ESE,116,4.0,5.0,95,0.00,,,0.15,35,Wunderground v.1.15,2013-11-05 19:58:00,
2013-11-05 13:59:00,50.0,48.6,30.03,SE,128,4.0,5.0,95,0.00,,,0.15,35,Wunderground v.1.15,2013-11-05 19:59:00,
2013-11-05 14:00:00,50.1,48.7,30.03,ESE,117,4.0,4.0,95,0.00,,,0.15,44,Wunderground v.1.15,2013-11-05 20:00:00,
2013-11-05 14:03:00,50.2,48.8,30.02,East,92,4.0,12.0,95,0.00,,,0.16,47,Wunderground v.1.15,2013-11-05 20:03:00,
2013-11-05 14:04:00,50.2,48.8,30.02,East,80,4.0,12.0,95,0.00,,,0.16,51,Wunderground v.1.15,2013-11-05 20:04:00,
2013-11-05 14:05:00,50.3,48.9,30.02,ESE,107,4.0,12.0,95,0.00,,,0.16,44,Wunderground v.1.15,2013-11-05 20:05:00,
2013-11-05 14:07:00,50.3,49.2,30.02,East,81,4.0,12.0,96,0.00,,,0.16,46,Wunderground v.1.15,2013-11-05 20:07:00,
2013-11-05 14:09:00,50.4,49.3,30.02,ESE,116,4.0,12.0,96,0.00,,,0.16,37,Wunderground v.1.15,2013-11-05 20:09:00,
2013-11-05 14:10:00,50.5,49.4,30.02,ESE,107,4.0,4.0,96,0.00,,,0.16,33,Wunderground v.1.15,2013-11-05 20:10:00,
2013-11-05 14:13:00,50.7,49.6,30.01,ESE,103,4.0,5.0,96,0.00,,,0.16,33,Wunderground v.1.15,2013-11-05 20:13:00,
2013-11-05 14:14:00,50.7,49.6,30.01,ESE,103,4.0,5.0,96,0.00,,,0.16,35,Wunderground v.1.15,2013-11-05 20:14:00,
2013-11-05 14:17:00,50.9,49.8,30.01,ESE,111,4.0,8.0,96,0.00,,,0.16,28,Wunderground v.1.15,2013-11-05 20:17:00,
2013-11-05 14:18:00,50.9,49.8,30.01,ESE,112,5.0,8.0,96,0.00,,,0.16,28,Wunderground v.1.15,2013-11-05 20:18:00,
2013-11-05 14:19:00,51.0,49.9,30.01,East,88,5.0,8.0,96,0.00,,,0.16,26,Wunderground v.1.15,2013-11-05 20:19:00,
2013-11-05 14:23:00,51.2,50.1,30.00,East,96,5.0,7.0,96,0.00,,,0.17,33,Wunderground v.1.15,2013-11-05 20:23:00,
2013-11-05 14:24:00,51.2,50.1,30.00,ESE,115,5.0,7.0,96,0.00,,,0.17,35,Wunderground v.1.15,2013-11-05 20:24:00,
2013-11-05 14:27:00,51.4,50.3,30.00,ESE,112,5.0,7.0,96,0.00,,,0.17,30,Wunderground v.1.15,2013-11-05 20:27:00,
2013-11-05 14:28:00,51.5,50.4,30.00,ESE,105,5.0,7.0,96,0.00,,,0.17,28,Wunderground v.1.15,2013-11-05 20:28:00,
2013-11-05 14:29:00,51.5,50.4,30.00,East,98,5.0,7.0,96,0.00,,,0.17,28,Wunderground v.1.15,2013-11-05 20:29:00,
2013-11-05 14:30:00,51.5,50.4,30.00,ENE,77,5.0,6.0,96,0.00,,,0.17,25,Wunderground v.1.15,2013-11-05 20:30:00,
2013-11-05 14:33:00,51.6,50.5,30.00,East,84,5.0,6.0,96,0.00,,,0.17,23,Wunderground v.1.15,2013-11-05 20:33:00,
2013-11-05 14:34:00,51.7,50.6,30.00,East,94,5.0,6.0,96,0.00,,,0.17,26,Wunderground v.1.15,2013-11-05 20:34:00,
2013-11-05 14:35:00,51.7,50.6,30.00,East,91,5.0,6.0,96,0.00,,,0.17,30,Wunderground v.1.15,2013-11-05 20:35:00,
2013-11-05 14:37:00,51.8,50.7,30.00,ESE,111,5.0,6.0,96,0.00,,,0.17,26,Wunderground v.1.15,2013-11-05 20:37:00,
2013-11-05 14:38:00,51.8,50.7,30.00,ENE,70,5.0,6.0,96,0.00,,,0.17,30,Wunderground v.1.15,2013-11-05 20:38:00,
2013-11-05 14:39:00,51.8,50.7,30.00,ENE,69,4.0,6.0,96,0.00,,,0.17,32,Wunderground v.1.15,2013-11-05 20:39:00,
2013-11-05 14:42:00,51.9,50.8,30.00,SE,125,4.0,5.0,96,0.00,,,0.17,35,Wunderground v.1.15,2013-11-05 20:42:00,
2013-11-05 14:45:00,52.0,50.9,29.99,ESE,107,4.0,5.0,96,0.00,,,0.18,28,Wunderground v.1.15,2013-11-05 20:45:00,
2013-11-05 14:48:00,52.1,51.0,30.00,ENE,74,3.0,5.0,96,0.19,,,0.19,14,Wunderground v.1.15,2013-11-05 20:48:00,
2013-11-05 14:50:00,52.2,51.1,29.99,ESE,116,3.0,3.0,96,0.12,,,0.19,9,Wunderground v.1.15,2013-11-05 20:50:00,
2013-11-05 14:51:00,52.3,51.2,29.99,SE,144,3.0,3.0,96,0.10,,,0.19,7,Wunderground v.1.15,2013-11-05 20:51:00,
2013-11-05 14:53:00,52.3,51.2,29.99,ESE,123,3.0,4.0,96,0.08,,,0.19,7,Wunderground v.1.15,2013-11-05 20:53:00,
2013-11-05 14:55:00,52.4,51.3,29.99,SSW,204,3.0,4.0,96,0.06,,,0.19,7,Wunderground v.1.15,2013-11-05 20:55:00,
2013-11-05 14:56:00,52.4,51.3,29.99,SSW,204,3.0,4.0,96,0.05,,,0.19,7,Wunderground v.1.15,2013-11-05 20:56:00,
2013-11-05 14:58:00,52.5,51.4,29.99,SSW,204,2.0,4.0,96,0.05,,,0.20,7,Wunderground v.1.15,2013-11-05 20:58:00,
2013-11-05 14:59:00,52.5,51.4,29.99,SSW,205,2.0,4.0,96,0.05,,,0.20,7,Wunderground v.1.15,2013-11-05 20:59:00,
2013-11-05 15:01:00,52.6,51.5,29.99,SSW,192,2.0,8.0,96,0.05,,,0.20,9,Wunderground v.1.15,2013-11-05 21:01:00,
2013-11-05 15:02:00,52.6,51.5,29.99,SSW,198,2.0,8.0,96,0.05,,,0.20,11,Wunderground v.1.15,2013-11-05 21:02:00,
2013-11-05 15:03:00,52.6,51.5,29.99,South,180,3.0,8.0,96,0.12,,,0.21,12,Wunderground v.1.15,2013-11-05 21:03:00,
2013-11-05 15:06:00,52.7,51.6,29.99,SSW,201,3.0,8.0,96,0.12,,,0.21,12,Wunderground v.1.15,2013-11-05 21:06:00,
2013-11-05 15:08:00,52.8,51.7,29.99,South,184,3.0,8.0,96,0.15,,,0.22,11,Wunderground v.1.15,2013-11-05 21:08:00,
2013-11-05 15:10:00,52.9,51.8,29.99,SSW,206,3.0,4.0,96,0.35,,,0.23,9,Wunderground v.1.15,2013-11-05 21:10:00,
2013-11-05 15:11:00,52.9,51.8,29.99,South,186,3.0,4.0,96,0.25,,,0.23,9,Wunderground v.1.15,2013-11-05 21:11:00,
2013-11-05 15:12:00,53.0,51.9,29.99,SSW,202,3.0,4.0,96,0.21,,,0.24,9,Wunderground v.1.15,2013-11-05 21:12:00,
2013-11-05 15:13:00,53.0,51.9,29.99,SSW,198,3.0,4.0,96,0.21,,,0.24,9,Wunderground v.1.15,2013-11-05 21:13:00,
2013-11-05 15:16:00,53.1,52.0,29.99,East,90,3.0,4.0,96,0.25,,,0.25,9,Wunderground v.1.15,2013-11-05 21:16:00,
2013-11-05 15:17:00,53.1,52.0,29.99,SSW,210,3.0,5.0,96,0.18,,,0.25,9,Wunderground v.1.15,2013-11-05 21:17:00,
2013-11-05 15:19:00,53.1,52.0,29.99,SSW,192,3.0,5.0,96,0.12,,,0.25,9,Wunderground v.1.15,2013-11-05 21:19:00,
2013-11-05 15:20:00,53.2,52.1,29.99,SSW,195,4.0,4.0,96,0.12,,,0.25,9,Wunderground v.1.15,2013-11-05 21:20:00,
2013-11-05 15:21:00,53.2,52.1,29.99,SSW,203,4.0,4.0,96,0.08,,,0.25,7,Wunderground v.1.15,2013-11-05 21:21:00,
2013-11-05 15:22:00,53.2,52.1,29.99,SSW,203,4.0,4.0,96,0.08,,,0.26,9,Wunderground v.1.15,2013-11-05 21:22:00,
2013-11-05 15:23:00,53.2,52.1,29.99,SE,130,4.0,4.0,96,0.08,,,0.26,9,Wunderground v.1.15,2013-11-05 21:23:00,
2013-11-05 15:27:00,53.3,52.2,29.99,South,172,4.0,5.0,96,0.14,,,0.27,12,Wunderground v.1.15,2013-11-05 21:27:00,
2013-11-05 15:28:00,53.4,52.3,29.99,South,185,4.0,5.0,96,0.23,,,0.28,12,Wunderground v.1.15,2013-11-05 21:28:00,
2013-11-05 15:30:00,53.4,52.3,29.98,SSW,212,4.0,4.0,96,0.23,,,0.28,14,Wunderground v.1.15,2013-11-05 21:30:00,
2013-11-05 15:31:00,53.4,52.3,29.98,South,180,4.0,4.0,96,0.24,,,0.29,16,Wunderground v.1.15,2013-11-05 21:31:00,
2013-11-05 15:34:00,53.5,52.4,29.98,WSW,244,4.0,4.0,96,0.22,,,0.30,12,Wunderground v.1.15,2013-11-05 21:34:00,
2013-11-05 15:35:00,53.5,52.4,29.98,SSW,208,4.0,4.0,96,0.22,,,0.30,12,Wunderground v.1.15,2013-11-05 21:35:00,
2013-11-05 15:36:00,53.5,52.4,29.98,SSW,196,4.0,4.0,96,0.24,,,0.31,12,Wunderground v.1.15,2013-11-05 21:36:00,
2013-11-05 15:37:00,53.6,52.5,29.98,South,186,4.0,4.0,96,0.24,,,0.31,14,Wunderground v.1.15,2013-11-05 21:37:00,
2013-11-05 15:40:00,53.6,52.5,29.98,SSW,192,4.0,4.0,96,0.14,,,0.31,12,Wunderground v.1.15,2013-11-05 21:40:00,
2013-11-05 15:41:00,53.6,52.5,29.97,South,179,4.0,4.0,96,0.14,,,0.32,14,Wunderground v.1.15,2013-11-05 21:41:00,
2013-11-05 15:42:00,53.6,52.5,29.97,SE,128,4.0,4.0,96,0.14,,,0.32,18,Wunderground v.1.15,2013-11-05 21:42:00,
2013-11-05 15:43:00,53.6,52.5,29.97,South,175,3.0,5.0,96,0.14,,,0.32,18,Wunderground v.1.15,2013-11-05 21:43:00,
2013-11-05 15:46:00,53.7,52.6,29.97,South,172,3.0,5.0,96,0.15,,,0.33,12,Wunderground v.1.15,2013-11-05 21:46:00,
2013-11-05 15:47:00,53.7,52.6,29.97,ESE,120,3.0,5.0,96,0.15,,,0.33,12,Wunderground v.1.15,2013-11-05 21:47:00,
2013-11-05 15:48:00,53.7,52.6,29.97,South,180,3.0,5.0,96,0.15,,,0.33,11,Wunderground v.1.15,2013-11-05 21:48:00,
2013-11-05 15:49:00,53.7,52.6,29.97,South,182,3.0,5.0,96,0.12,,,0.33,11,Wunderground v.1.15,2013-11-05 21:49:00,
2013-11-05 15:53:00,53.8,52.7,29.97,SSW,204,4.0,5.0,96,0.07,,,0.33,5,Wunderground v.1.15,2013-11-05 21:53:00,
2013-11-05 15:54:00,53.8,52.7,29.97,South,186,4.0,5.0,96,0.07,,,0.34,7,Wunderground v.1.15,2013-11-05 21:54:00,
2013-11-05 15:57:00,53.8,52.7,29.97,SSW,194,4.0,6.0,96,0.16,,,0.34,14,Wunderground v.1.15,2013-11-05 21:57:00,
2013-11-05 15:58:00,53.9,52.8,29.97,South,178,4.0,6.0,96,0.16,,,0.35,12,Wunderground v.1.15,2013-11-05 21:58:00,
2013-11-05 16:00:00,53.9,52.8,29.97,SSW,192,4.0,4.0,96,0.16,,,0.35,11,Wunderground v.1.15,2013-11-05 22:00:00,
2013-11-05 16:01:00,53.9,52.8,29.97,SSE,162,4.0,9.0,96,0.14,,,0.35,9,Wunderground v.1.15,2013-11-05 22:01:00,
2013-11-05 16:02:00,53.9,52.8,29.97,South,185,4.0,9.0,96,0.11,,,0.35,7,Wunderground v.1.15,2013-11-05 22:02:00,
2013-11-05 16:06:00,53.9,52.8,29.97,SSE,165,4.0,9.0,96,0.06,,,0.35,11,Wunderground v.1.15,2013-11-05 22:06:00,
2013-11-05 16:07:00,53.9,52.8,29.97,SSW,202,4.0,9.0,96,0.06,,,0.35,11,Wunderground v.1.15,2013-11-05 22:07:00,
2013-11-05 16:09:00,54.0,52.9,29.97,SSW,200,4.0,9.0,96,0.05,,,0.36,11,Wunderground v.1.15,2013-11-05 22:09:00,
2013-11-05 16:10:00,54.0,52.9,29.97,South,185,4.0,4.0,96,0.05,,,0.36,11,Wunderground v.1.15,2013-11-05 22:10:00,
2013-11-05 16:12:00,54.0,52.9,29.97,SSW,201,4.0,6.0,96,0.05,,,0.36,11,Wunderground v.1.15,2013-11-05 22:12:00,
2013-11-05 16:14:00,54.1,53.0,29.97,South,185,4.0,7.0,96,0.05,,,0.36,9,Wunderground v.1.15,2013-11-05 22:14:00,
2013-11-05 16:16:00,54.1,53.0,29.97,South,182,5.0,8.0,96,0.05,,,0.36,7,Wunderground v.1.15,2013-11-05 22:16:00,
2013-11-05 16:17:00,54.1,53.0,29.97,South,187,5.0,8.0,96,0.05,,,0.36,7,Wunderground v.1.15,2013-11-05 22:17:00,
2013-11-05 16:18:00,54.1,53.0,29.96,SSE,163,5.0,8.0,96,0.05,,,0.36,7,Wunderground v.1.15,2013-11-05 22:18:00,
2013-11-05 16:21:00,54.2,53.1,29.96,South,186,5.0,7.0,96,0.06,,,0.37,0,Wunderground v.1.15,2013-11-05 22:21:00,
2013-11-05 16:22:00,54.2,53.1,29.96,South,189,5.0,7.0,96,0.06,,,0.37,5,Wunderground v.1.15,2013-11-05 22:22:00,
2013-11-05 16:24:00,54.2,53.1,29.96,SSW,210,5.0,7.0,96,0.06,,,0.37,5,Wunderground v.1.15,2013-11-05 22:24:00,
2013-11-05 16:25:00,54.2,53.1,29.96,SSW,194,5.0,7.0,96,0.06,,,0.37,5,Wunderground v.1.15,2013-11-05 22:25:00,
2013-11-05 16:29:00,54.3,53.2,29.96,SSW,202,5.0,7.0,96,0.06,,,0.37,5,Wunderground v.1.15,2013-11-05 22:29:00,
2013-11-05 16:30:00,54.3,53.2,29.96,South,180,5.0,5.0,96,0.06,,,0.37,7,Wunderground v.1.15,2013-11-05 22:30:00,
2013-11-05 16:31:00,54.3,53.2,29.95,SSE,161,5.0,5.0,96,0.05,,,0.37,7,Wunderground v.1.15,2013-11-05 22:31:00,
2013-11-05 16:36:00,54.4,53.3,29.96,South,181,4.0,8.0,96,0.04,,,0.37,0,Wunderground v.1.15,2013-11-05 22:36:00,
2013-11-05 16:37:00,54.4,53.3,29.96,South,181,5.0,8.0,96,0.00,,,0.37,0,Wunderground v.1.15,2013-11-05 22:37:00,
2013-11-05 16:41:00,54.5,53.4,29.96,SSW,196,5.0,5.0,96,0.00,,,0.37,0,Wunderground v.1.15,2013-11-05 22:41:00,
2013-11-05 16:42:00,54.5,53.4,29.96,South,172,6.0,11.0,96,0.00,,,0.37,0,Wunderground v.1.15,2013-11-05 22:42:00,
2013-11-05 16:44:00,54.6,53.5,29.96,SSW,194,6.0,11.0,96,0.00,,,0.37,0,Wunderground v.1.15,2013-11-05 22:44:00,
2013-11-05 16:46:00,54.6,53.5,29.96,South,189,6.0,11.0,96,0.00,,,0.37,0,Wunderground v.1.15,2013-11-05 22:46:00,
2013-11-05 16:48:00,54.6,53.5,29.96,South,184,6.0,11.0,96,0.00,,,0.37,0,Wunderground v.1.15,2013-11-05 22:48:00,
2013-11-05 16:49:00,54.6,53.5,29.96,South,178,6.0,11.0,96,0.00,,,0.37,0,Wunderground v.1.15,2013-11-05 22:49:00,
2013-11-05 16:51:00,54.6,53.5,29.95,SSW,197,6.0,6.0,96,0.00,,,0.37,0,Wunderground v.1.15,2013-11-05 22:51:00,
2013-11-05 16:53:00,54.7,53.6,29.95,South,190,6.0,8.0,96,0.00,,,0.37,0,Wunderground v.1.15,2013-11-05 22:53:00,
2013-11-05 16:56:00,54.7,53.6,29.95,South,180,5.0,8.0,96,0.00,,,0.37,0,Wunderground v.1.15,2013-11-05 22:56:00,
2013-11-05 16:57:00,54.7,53.6,29.95,South,183,5.0,8.0,96,0.00,,,0.37,0,Wunderground v.1.15,2013-11-05 22:57:00,
2013-11-05 16:59:00,54.8,53.7,29.95,SSW,193,5.0,8.0,96,0.00,,,0.38,0,Wunderground v.1.15,2013-11-05 22:59:00,
2013-11-05 17:01:00,54.8,53.7,29.95,South,175,5.0,8.0,96,0.00,,,0.38,0,Wunderground v.1.15,2013-11-05 23:01:00,
2013-11-05 17:02:00,54.8,53.7,29.95,South,177,5.0,8.0,96,0.00,,,0.38,0,Wunderground v.1.15,2013-11-05 23:02:00,
2013-11-05 17:04:00,54.9,53.8,29.95,South,189,5.0,8.0,96,0.16,,,0.39,0,Wunderground v.1.15,2013-11-05 23:04:00,
2013-11-05 17:07:00,54.9,53.8,29.95,South,175,6.0,8.0,96,0.13,,,0.39,0,Wunderground v.1.15,2013-11-05 23:07:00,
2013-11-05 17:08:00,54.9,53.8,29.95,South,188,6.0,8.0,96,0.11,,,0.39,0,Wunderground v.1.15,2013-11-05 23:08:00,
2013-11-05 17:10:00,54.9,53.8,29.95,SSW,196,6.0,6.0,96,0.09,,,0.40,0,Wunderground v.1.15,2013-11-05 23:10:00,
2013-11-05 17:12:00,55.0,53.9,29.95,South,181,6.0,6.0,96,0.09,,,0.40,0,Wunderground v.1.15,2013-11-05 23:12:00,
2013-11-05 17:14:00,55.0,53.9,29.95,South,180,6.0,6.0,96,0.09,,,0.40,0,Wunderground v.1.15,2013-11-05 23:14:00,
2013-11-05 17:15:00,55.0,53.9,29.95,South,181,5.0,6.0,96,0.09,,,0.40,0,Wunderground v.1.15,2013-11-05 23:15:00,
2013-11-05 17:16:00,55.0,53.9,29.95,South,182,5.0,6.0,96,0.08,,,0.40,0,Wunderground v.1.15,2013-11-05 23:16:00,
2013-11-05 17:18:00,55.0,53.9,29.95,South,188,5.0,7.0,96,0.08,,,0.41,0,Wunderground v.1.15,2013-11-05 23:18:00,
2013-11-05 17:19:00,55.0,53.9,29.95,South,181,5.0,7.0,96,0.08,,,0.41,0,Wunderground v.1.15,2013-11-05 23:19:00,
2013-11-05 17:21:00,55.0,53.9,29.95,South,179,5.0,5.0,96,0.08,,,0.41,0,Wunderground v.1.15,2013-11-05 23:21:00,
2013-11-05 17:23:00,55.1,54.0,29.95,SSE,157,5.0,5.0,96,0.08,,,0.41,0,Wunderground v.1.15,2013-11-05 23:23:00,
2013-11-05 17:25:00,55.1,54.0,29.95,South,185,5.0,7.0,96,0.07,,,0.41,0,Wunderground v.1.15,2013-11-05 23:25:00,
2013-11-05 17:26:00,55.1,54.0,29.95,SSW,195,5.0,8.0,96,0.06,,,0.41,0,Wunderground v.1.15,2013-11-05 23:26:00,
2013-11-05 17:27:00,55.1,54.0,29.95,South,177,6.0,8.0,96,0.06,,,0.42,0,Wunderground v.1.15,2013-11-05 23:27:00,
2013-11-05 17:29:00,55.1,54.0,29.95,South,182,6.0,8.0,96,0.06,,,0.42,0,Wunderground v.1.15,2013-11-05 23:29:00,
2013-11-05 17:30:00,55.1,54.0,29.95,SSW,200,6.0,6.0,96,0.06,,,0.42,0,Wunderground v.1.15,2013-11-05 23:30:00,
2013-11-05 17:33:00,55.2,54.1,29.95,South,188,6.0,7.0,96,0.12,,,0.43,0,Wunderground v.1.15,2013-11-05 23:33:00,
2013-11-05 17:34:00,55.1,54.0,29.94,South,175,6.0,7.0,96,0.20,,,0.43,0,Wunderground v.1.15,2013-11-05 23:34:00,
2013-11-05 17:35:00,55.2,54.1,29.94,South,178,6.0,7.0,96,0.20,,,0.44,0,Wunderground v.1.15,2013-11-05 23:35:00,
2013-11-05 17:37:00,55.2,54.1,29.94,South,185,5.0,7.0,96,0.26,,,0.45,0,Wunderground v.1.15,2013-11-05 23:37:00,
2013-11-05 17:39:00,55.2,54.1,29.94,South,181,5.0,7.0,96,0.23,,,0.45,0,Wunderground v.1.15,2013-11-05 23:39:00,
2013-11-05 17:40:00,55.2,54.1,29.94,South,186,5.0,5.0,96,0.22,,,0.46,0,Wunderground v.1.15,2013-11-05 23:40:00,
2013-11-05 17:41:00,55.3,54.2,29.94,South,185,5.0,5.0,96,0.22,,,0.46,0,Wunderground v.1.15,2013-11-05 23:41:00,
2013-11-05 17:42:00,55.3,54.2,29.94,South,182,5.0,6.0,96,0.23,,,0.47,0,Wunderground v.1.15,2013-11-05 23:42:00,
2013-11-05 17:44:00,55.3,54.2,29.94,SSW,193,4.0,6.0,96,0.23,,,0.47,0,Wunderground v.1.15,2013-11-05 23:44:00,
2013-11-05 17:47:00,55.3,54.2,29.94,South,179,5.0,6.0,96,0.21,,,0.48,0,Wunderground v.1.15,2013-11-05 23:47:00,
2013-11-05 17:49:00,55.3,54.2,29.94,South,186,5.0,6.0,96,0.15,,,0.49,0,Wunderground v.1.15,2013-11-05 23:49:00,
2013-11-05 17:51:00,55.4,54.3,29.94,SSW,192,4.0,5.0,96,0.15,,,0.49,0,Wunderground v.1.15,2013-11-05 23:51:00,
2013-11-05 17:53:00,55.3,54.2,29.94,South,171,5.0,5.0,96,0.13,,,0.49,0,Wunderground v.1.15,2013-11-05 23:53:00,
2013-11-05 17:54:00,55.4,54.3,29.94,South,181,5.0,5.0,96,0.10,,,0.49,0,Wunderground v.1.15,2013-11-05 23:54:00,
2013-11-05 17:55:00,55.4,54.3,29.94,South,173,4.0,5.0,96,0.09,,,0.49,0,Wunderground v.1.15,2013-11-05 23:55:00,
2013-11-05 17:56:00,55.4,54.3,29.93,South,173,4.0,5.0,96,0.08,,,0.49,0,Wunderground v.1.15,2013-11-05 23:56:00,
2013-11-05 17:57:00,55.4,55.4,29.93,South,182,4.0,5.0,100,0.07,,,0.49,0,Wunderground v.1.15,2013-11-05 23:57:00,
2013-11-05 18:00:00,55.4,54.3,29.94,South,169,4.0,6.0,96,0.05,,,0.49,0,Wunderground v.1.15,2013-11-06 00:00:00,
2013-11-05 18:01:00,55.4,54.3,29.94,South,175,5.0,12.0,96,0.05,,,0.49,0,Wunderground v.1.15,2013-11-06 00:01:00,
2013-11-05 18:02:00,55.5,54.4,29.94,South,177,5.0,12.0,96,0.04,,,0.49,0,Wunderground v.1.15,2013-11-06 00:02:00,
2013-11-05 18:05:00,55.5,54.4,29.94,SSE,168,5.0,12.0,96,0.04,,,0.50,0,Wunderground v.1.15,2013-11-06 00:05:00,
2013-11-05 18:06:00,55.5,54.4,29.93,South,175,5.0,12.0,96,0.04,,,0.50,0,Wunderground v.1.15,2013-11-06 00:06:00,
2013-11-05 18:07:00,55.5,54.4,29.93,SSW,192,5.0,12.0,96,0.04,,,0.50,0,Wunderground v.1.15,2013-11-06 00:07:00,
2013-11-05 18:08:00,55.5,54.4,29.93,South,184,5.0,12.0,96,0.10,,,0.51,0,Wunderground v.1.15,2013-11-06 00:08:00,
2013-11-05 18:09:00,55.6,54.5,29.93,South,178,5.0,12.0,96,0.10,,,0.51,0,Wunderground v.1.15,2013-11-06 00:09:00,
2013-11-05 18:13:00,55.7,54.6,29.93,South,184,5.0,6.0,96,0.10,,,0.51,0,Wunderground v.1.15,2013-11-06 00:13:00,
2013-11-05 18:14:00,55.7,54.6,29.93,SSW,196,5.0,6.0,96,0.10,,,0.51,0,Wunderground v.1.15,2013-11-06 00:14:00,
2013-11-05 18:17:00,55.7,54.6,29.94,South,175,5.0,6.0,96,0.07,,,0.51,0,Wunderground v.1.15,2013-11-06 00:17:00,
2013-11-05 18:19:00,55.7,54.6,29.94,South,171,6.0,6.0,96,0.06,,,0.51,0,Wunderground v.1.15,2013-11-06 00:19:00,
2013-11-05 18:20:00,55.7,54.6,29.93,South,175,6.0,7.0,96,0.05,,,0.51,0,Wunderground v.1.15,2013-11-06 00:20:00,
2013-11-05 18:21:00,55.7,54.6,29.94,South,170,6.0,7.0,96,0.05,,,0.51,0,Wunderground v.1.15,2013-11-06 00:21:00,
2013-11-05 18:23:00,55.8,54.7,29.94,South,181,6.0,7.0,96,0.04,,,0.51,0,Wunderground v.1.15,2013-11-06 00:23:00,
2013-11-05 18:24:00,55.8,54.7,29.93,South,175,7.0,7.0,96,0.04,,,0.51,0,Wunderground v.1.15,2013-11-06 00:24:00,
2013-11-05 18:26:00,55.9,54.8,29.93,SSW,192,7.0,7.0,96,0.00,,,0.51,0,Wunderground v.1.15,2013-11-06 00:26:00,
2013-11-05 18:27:00,55.9,54.8,29.93,SSE,164,7.0,14.0,96,0.00,,,0.51,0,Wunderground v.1.15,2013-11-06 00:27:00,
2013-11-05 18:31:00,56.0,54.9,29.93,SSW,212,9.0,10.0,96,0.00,,,0.52,0,Wunderground v.1.15,2013-11-06 00:31:00,
2013-11-05 18:32:00,56.0,54.9,29.93,SSE,149,9.0,10.0,96,0.00,,,0.52,0,Wunderground v.1.15,2013-11-06 00:32:00,
2013-11-05 18:34:00,56.0,54.9,29.93,SSE,162,10.0,10.0,96,0.00,,,0.52,0,Wunderground v.1.15,2013-11-06 00:34:00,
2013-11-05 18:35:00,56.1,55.0,29.93,South,177,10.0,10.0,96,0.00,,,0.52,0,Wunderground v.1.15,2013-11-06 00:35:00,
2013-11-05 18:36:00,56.1,55.0,29.93,South,190,10.0,11.0,96,0.00,,,0.52,0,Wunderground v.1.15,2013-11-06 00:36:00,
2013-11-05 18:37:00,56.1,55.0,29.93,South,182,10.0,11.0,96,0.00,,,0.52,0,Wunderground v.1.15,2013-11-06 00:37:00,
2013-11-05 18:38:00,56.1,55.0,29.93,South,173,10.0,11.0,96,0.00,,,0.52,0,Wunderground v.1.15,2013-11-06 00:38:00,
2013-11-05 18:41:00,56.2,55.1,29.93,South,183,9.0,9.0,96,0.00,,,0.52,0,Wunderground v.1.15,2013-11-06 00:41:00,
2013-11-05 18:43:00,56.2,55.1,29.93,South,171,9.0,13.0,96,0.00,,,0.52,0,Wunderground v.1.15,2013-11-06 00:43:00,
2013-11-05 18:45:00,56.2,55.1,29.93,South,175,9.0,13.0,96,0.00,,,0.52,0,Wunderground v.1.15,2013-11-06 00:45:00,
2013-11-05 18:46:00,56.2,55.1,29.93,South,188,9.0,13.0,96,0.00,,,0.52,0,Wunderground v.1.15,2013-11-06 00:46:00,
2013-11-05 18:48:00,56.2,55.1,29.93,SSE,167,9.0,13.0,96,0.00,,,0.52,0,Wunderground v.1.15,2013-11-06 00:48:00,
2013-11-05 18:49:00,56.2,55.1,29.93,South,182,9.0,13.0,96,0.00,,,0.52,0,Wunderground v.1.15,2013-11-06 00:49:00,
2013-11-05 18:50:00,56.2,55.1,29.92,SW,217,9.0,9.0,96,0.00,,,0.52,0,Wunderground v.1.15,2013-11-06 00:50:00,
2013-11-05 18:51:00,56.2,55.1,29.93,SSW,200,9.0,9.0,96,0.00,,,0.52,0,Wunderground v.1.15,2013-11-06 00:51:00,
2013-11-05 18:55:00,56.3,55.2,29.93,South,173,9.0,17.0,96,0.00,,,0.52,0,Wunderground v.1.15,2013-11-06 00:55:00,
2013-11-05 18:56:00,56.3,55.2,29.93,SSW,198,9.0,17.0,96,0.00,,,0.52,0,Wunderground v.1.15,2013-11-06 00:56:00,
2013-11-05 18:57:00,56.3,55.2,29.93,South,177,9.0,17.0,96,0.00,,,0.53,0,Wunderground v.1.15,2013-11-06 00:57:00,
2013-11-05 18:59:00,56.3,55.2,29.93,South,180,9.0,17.0,96,0.00,,,0.53,0,Wunderground v.1.15,2013-11-06 00:59:00,
2013-11-05 19:00:00,56.3,55.2,29.93,SSE,167,9.0,10.0,96,0.00,,,0.53,0,Wunderground v.1.15,2013-11-06 01:00:00,
2013-11-05 19:01:00,56.3,55.2,29.92,South,188,9.0,11.0,96,0.00,,,0.53,0,Wunderground v.1.15,2013-11-06 01:01:00,
2013-11-05 19:04:00,56.3,55.2,29.93,South,172,9.0,11.0,96,0.00,,,0.53,0,Wunderground v.1.15,2013-11-06 01:04:00,
2013-11-05 19:05:00,56.3,55.2,29.92,SSE,161,9.0,11.0,96,0.00,,,0.53,0,Wunderground v.1.15,2013-11-06 01:05:00,
2013-11-05 19:06:00,56.4,55.3,29.92,South,183,9.0,14.0,96,0.00,,,0.53,0,Wunderground v.1.15,2013-11-06 01:06:00,
2013-11-05 19:10:00,56.4,55.3,29.92,South,181,8.0,11.0,96,0.00,,,0.53,0,Wunderground v.1.15,2013-11-06 01:10:00,
2013-11-05 19:11:00,56.4,55.3,29.92,South,171,9.0,11.0,96,0.00,,,0.53,0,Wunderground v.1.15,2013-11-06 01:11:00,
2013-11-05 19:12:00,56.4,55.3,29.91,SSW,193,8.0,11.0,96,0.00,,,0.53,0,Wunderground v.1.15,2013-11-06 01:12:00,
2013-11-05 19:13:00,56.4,55.3,29.92,SSW,205,8.0,11.0,96,0.00,,,0.53,0,Wunderground v.1.15,2013-11-06 01:13:00,
2013-11-05 19:17:00,56.4,55.3,29.92,South,184,8.0,11.0,96,0.00,,,0.53,0,Wunderground v.1.15,2013-11-06 01:17:00,
2013-11-05 19:18:00,56.4,55.3,29.92,South,174,8.0,11.0,96,0.00,,,0.53,0,Wunderground v.1.15,2013-11-06 01:18:00,
2013-11-05 19:19:00,56.4,55.3,29.92,South,180,9.0,11.0,96,0.00,,,0.53,0,Wunderground v.1.15,2013-11-06 01:19:00,
2013-11-05 19:20:00,56.4,55.3,29.92,South,179,9.0,9.0,96,0.00,,,0.53,0,Wunderground v.1.15,2013-11-06 01:20:00,
2013-11-05 19:23:00,56.5,55.4,29.92,South,188,9.0,12.0,96,0.00,,,0.53,0,Wunderground v.1.15,2013-11-06 01:23:00,
2013-11-05 19:24:00,56.5,55.4,29.92,SSW,197,9.0,12.0,96,0.00,,,0.53,0,Wunderground v.1.15,2013-11-06 01:24:00,
2013-11-05 19:25:00,56.5,55.4,29.92,South,179,9.0,12.0,96,0.00,,,0.54,0,Wunderground v.1.15,2013-11-06 01:25:00,
2013-11-05 19:26:00,56.5,55.4,29.91,SSW,206,10.0,12.0,96,0.00,,,0.54,0,Wunderground v.1.15,2013-11-06 01:26:00,
2013-11-05 19:27:00,56.5,55.4,29.91,South,178,10.0,12.0,96,0.00,,,0.54,0,Wunderground v.1.15,2013-11-06 01:27:00,
2013-11-05 19:28:00,56.5,55.4,29.91,South,173,10.0,12.0,96,0.00,,,0.54,0,Wunderground v.1.15,2013-11-06 01:28:00,
2013-11-05 19:29:00,56.6,55.5,29.91,SSW,202,10.0,12.0,96,0.13,,,0.54,0,Wunderground v.1.15,2013-11-06 01:29:00,
2013-11-05 19:32:00,56.6,55.5,29.91,South,186,10.0,13.0,96,0.13,,,0.55,0,Wunderground v.1.15,2013-11-06 01:32:00,
2013-11-05 19:34:00,56.6,55.5,29.91,SSE,168,10.0,13.0,96,0.12,,,0.55,0,Wunderground v.1.15,2013-11-06 01:34:00,
2013-11-05 19:38:00,56.6,55.5,29.91,South,180,10.0,13.0,96,0.07,,,0.55,0,Wunderground v.1.15,2013-11-06 01:38:00,
2013-11-05 19:39:00,56.6,55.5,29.91,South,171,10.0,13.0,96,0.06,,,0.55,0,Wunderground v.1.15,2013-11-06 01:39:00,
2013-11-05 19:40:00,56.6,55.5,29.91,South,185,10.0,13.0,96,0.05,,,0.55,0,Wunderground v.1.15,2013-11-06 01:40:00,
2013-11-05 19:41:00,56.6,55.5,29.91,South,169,10.0,13.0,96,0.05,,,0.55,0,Wunderground v.1.15,2013-11-06 01:41:00,
2013-11-05 19:42:00,56.7,55.6,29.91,South,180,10.0,13.0,96,0.05,,,0.55,0,Wunderground v.1.15,2013-11-06 01:42:00,
2013-11-05 19:46:00,56.7,55.6,29.91,South,190,11.0,13.0,96,0.00,,,0.55,0,Wunderground v.1.15,2013-11-06 01:46:00,
2013-11-05 19:49:00,56.7,55.6,29.91,SSW,206,11.0,14.0,96,0.00,,,0.55,0,Wunderground v.1.15,2013-11-06 01:49:00,
2013-11-05 19:52:00,56.8,55.7,29.91,South,187,11.0,12.0,96,0.00,,,0.55,0,Wunderground v.1.15,2013-11-06 01:52:00,
2013-11-05 19:54:00,56.8,55.7,29.91,South,183,11.0,12.0,96,0.00,,,0.55,0,Wunderground v.1.15,2013-11-06 01:54:00,
2013-11-05 19:55:00,56.8,55.7,29.91,SSW,200,11.0,13.0,96,0.00,,,0.55,0,Wunderground v.1.15,2013-11-06 01:55:00,
2013-11-05 19:58:00,56.8,55.7,29.91,South,178,11.0,15.0,96,0.00,,,0.55,0,Wunderground v.1.15,2013-11-06 01:58:00,
2013-11-05 20:00:00,56.8,55.7,29.91,SSE,165,11.0,12.0,96,0.00,,,0.55,0,Wunderground v.1.15,2013-11-06 02:00:00,
2013-11-05 20:02:00,56.8,55.7,29.91,SSW,194,11.0,18.0,96,0.00,,,0.55,0,Wunderground v.1.15,2013-11-06 02:02:00,
2013-11-05 20:04:00,56.9,55.8,29.91,South,185,11.0,18.0,96,0.00,,,0.55,0,Wunderground v.1.15,2013-11-06 02:04:00,
2013-11-05 20:07:00,56.9,55.8,29.91,South,185,11.0,18.0,96,0.00,,,0.55,0,Wunderground v.1.15,2013-11-06 02:07:00,
2013-11-05 20:08:00,56.9,55.8,29.91,South,178,11.0,18.0,96,0.00,,,0.55,0,Wunderground v.1.15,2013-11-06 02:08:00,
2013-11-05 20:09:00,56.9,55.8,29.90,South,181,11.0,18.0,96,0.00,,,0.55,0,Wunderground v.1.15,2013-11-06 02:09:00,
2013-11-05 20:10:00,56.9,55.8,29.90,SSW,205,11.0,11.0,96,0.00,,,0.55,0,Wunderground v.1.15,2013-11-06 02:10:00,
2013-11-05 20:13:00,57.0,55.9,29.90,South,180,11.0,11.0,96,0.00,,,0.55,0,Wunderground v.1.15,2013-11-06 02:13:00,
2013-11-05 20:15:00,57.0,55.9,29.90,SSE,158,11.0,17.0,96,0.00,,,0.55,0,Wunderground v.1.15,2013-11-06 02:15:00,
2013-11-05 20:16:00,57.0,55.9,29.90,South,178,11.0,17.0,96,0.00,,,0.55,0,Wunderground v.1.15,2013-11-06 02:16:00,
2013-11-05 20:17:00,57.0,55.9,29.90,South,180,11.0,17.0,96,0.00,,,0.55,0,Wunderground v.1.15,2013-11-06 02:17:00,
2013-11-05 20:18:00,57.0,55.9,29.90,SSW,198,11.0,17.0,96,0.00,,,0.55,0,Wunderground v.1.15,2013-11-06 02:18:00,
2013-11-05 20:20:00,57.0,55.9,29.90,SSW,197,10.0,10.0,96,0.00,,,0.55,0,Wunderground v.1.15,2013-11-06 02:20:00,
2013-11-05 20:23:00,57.1,56.0,29.90,SSW,204,10.0,14.0,96,0.00,,,0.55,0,Wunderground v.1.15,2013-11-06 02:23:00,
2013-11-05 20:24:00,57.1,56.0,29.90,South,188,10.0,14.0,96,0.00,,,0.55,0,Wunderground v.1.15,2013-11-06 02:24:00,
2013-11-05 20:25:00,57.1,56.0,29.90,SSW,193,10.0,14.0,96,0.00,,,0.55,0,Wunderground v.1.15,2013-11-06 02:25:00,
2013-11-05 20:27:00,57.1,56.0,29.90,SSW,209,10.0,14.0,96,0.00,,,0.55,0,Wunderground v.1.15,2013-11-06 02:27:00,
2013-11-05 20:28:00,57.1,56.0,29.90,SSW,201,10.0,14.0,96,0.00,,,0.55,0,Wunderground v.1.15,2013-11-06 02:28:00,
2013-11-05 20:30:00,57.1,56.0,29.91,SW,227,10.0,10.0,96,0.00,,,0.55,0,Wunderground v.1.15,2013-11-06 02:30:00,
2013-11-05 20:31:00,57.1,56.0,29.91,SW,224,10.0,10.0,96,0.00,,,0.55,0,Wunderground v.1.15,2013-11-06 02:31:00,
2013-11-05 20:32:00,56.9,55.5,29.91,SW,236,9.0,10.0,95,0.00,,,0.55,0,Wunderground v.1.15,2013-11-06 02:32:00,
2013-11-05 20:33:00,56.6,55.2,29.91,SW,236,8.0,10.0,95,0.00,,,0.55,0,Wunderground v.1.15,2013-11-06 02:33:00,
2013-11-05 20:36:00,55.5,53.8,29.92,SW,235,6.0,10.0,94,0.00,,,0.56,0,Wunderground v.1.15,2013-11-06 02:36:00,
2013-11-05 20:37:00,55.1,53.4,29.91,SW,228,5.0,10.0,94,0.00,,,0.56,0,Wunderground v.1.15,2013-11-06 02:37:00,
2013-11-05 20:39:00,54.5,52.8,29.91,WNW,292,3.0,10.0,94,0.00,,,0.56,0,Wunderground v.1.15,2013-11-06 02:39:00,
2013-11-05 20:41:00,54.1,52.4,29.92,WSW,249,2.0,5.0,94,0.00,,,0.56,0,Wunderground v.1.15,2013-11-06 02:41:00,
2013-11-05 20:43:00,53.6,51.9,29.91,WNW,294,2.0,5.0,94,0.00,,,0.56,0,Wunderground v.1.15,2013-11-06 02:43:00,
2013-11-05 20:46:00,52.9,51.2,29.92,WNW,285,2.0,5.0,94,0.00,,,0.56,0,Wunderground v.1.15,2013-11-06 02:46:00,
2013-11-05 20:47:00,52.7,51.0,29.91,WNW,285,1.0,5.0,94,0.00,,,0.56,0,Wunderground v.1.15,2013-11-06 02:47:00,
2013-11-05 20:49:00,52.3,50.6,29.92,WNW,292,2.0,5.0,94,0.00,,,0.56,0,Wunderground v.1.15,2013-11-06 02:49:00,
2013-11-05 20:51:00,51.9,50.2,29.92,SW,224,2.0,2.0,94,0.00,,,0.56,0,Wunderground v.1.15,2013-11-06 02:51:00,
2013-11-05 20:53:00,51.5,49.8,29.92,WSW,252,2.0,2.0,94,0.00,,,0.56,0,Wunderground v.1.15,2013-11-06 02:53:00,
2013-11-05 20:55:00,51.2,49.5,29.92,WNW,293,2.0,3.0,94,0.00,,,0.56,0,Wunderground v.1.15,2013-11-06 02:55:00,
2013-11-05 20:58:00,50.7,48.7,29.92,WNW,289,2.0,3.0,93,0.00,,,0.56,0,Wunderground v.1.15,2013-11-06 02:58:00,
2013-11-05 21:00:00,50.4,48.7,29.92,WNW,288,2.0,2.0,94,0.00,,,0.56,0,Wunderground v.1.15,2013-11-06 03:00:00,
2013-11-05 21:01:00,50.3,48.6,29.92,WNW,300,2.0,19.0,94,0.00,,,0.56,0,Wunderground v.1.15,2013-11-06 03:01:00,
2013-11-05 21:02:00,50.1,48.4,29.92,WNW,297,1.0,19.0,94,0.00,,,0.56,0,Wunderground v.1.15,2013-11-06 03:02:00,
2013-11-05 21:03:00,50.0,48.3,29.92,West,271,1.0,19.0,94,0.00,,,0.56,0,Wunderground v.1.15,2013-11-06 03:03:00,
2013-11-05 21:05:00,49.8,48.1,29.92,West,274,1.0,19.0,94,0.00,,,0.56,0,Wunderground v.1.15,2013-11-06 03:05:00,
2013-11-05 21:07:00,49.6,47.9,29.92,West,277,1.0,19.0,94,0.00,,,0.56,0,Wunderground v.1.15,2013-11-06 03:07:00,
2013-11-05 21:08:00,49.6,47.9,29.92,West,277,1.0,19.0,94,0.00,,,0.56,0,Wunderground v.1.15,2013-11-06 03:08:00,
2013-11-05 21:09:00,49.5,47.8,29.92,West,277,1.0,19.0,94,0.00,,,0.56,0,Wunderground v.1.15,2013-11-06 03:09:00,
2013-11-05 21:11:00,49.3,47.6,29.92,West,277,1.0,1.0,94,0.00,,,0.56,0,Wunderground v.1.15,2013-11-06 03:11:00,
2013-11-05 21:14:00,49.0,47.3,29.92,WNW,298,1.0,2.0,94,0.00,,,0.56,0,Wunderground v.1.15,2013-11-06 03:14:00,
2013-11-05 21:15:00,48.9,47.2,29.92,WNW,298,1.0,2.0,94,0.00,,,0.56,0,Wunderground v.1.15,2013-11-06 03:15:00,
2013-11-05 21:16:00,48.9,47.2,29.92,WNW,296,1.0,4.0,94,0.00,,,0.57,0,Wunderground v.1.15,2013-11-06 03:16:00,
2013-11-05 21:17:00,48.8,47.2,29.92,WNW,292,1.0,4.0,94,0.00,,,0.57,0,Wunderground v.1.15,2013-11-06 03:17:00,
2013-11-05 21:18:00,48.7,47.1,29.92,WNW,292,1.0,4.0,94,0.00,,,0.57,0,Wunderground v.1.15,2013-11-06 03:18:00,
2013-11-05 21:19:00,48.7,47.1,29.92,WNW,292,1.0,4.0,94,0.00,,,0.57,0,Wunderground v.1.15,2013-11-06 03:19:00,
2013-11-05 21:21:00,48.6,47.0,29.93,WNW,292,1.0,1.0,94,0.00,,,0.57,0,Wunderground v.1.15,2013-11-06 03:21:00,
2013-11-05 21:22:00,48.6,47.0,29.93,WNW,292,1.0,1.0,94,0.00,,,0.57,0,Wunderground v.1.15,2013-11-06 03:22:00,
2013-11-05 21:24:00,48.5,46.9,29.93,WNW,292,1.0,3.0,94,0.00,,,0.57,0,Wunderground v.1.15,2013-11-06 03:24:00,
2013-11-05 21:26:00,48.4,46.8,29.93,WNW,293,2.0,3.0,94,0.00,,,0.57,0,Wunderground v.1.15,2013-11-06 03:26:00,
2013-11-05 21:27:00,48.3,46.7,29.93,WNW,295,2.0,3.0,94,0.00,,,0.57,0,Wunderground v.1.15,2013-11-06 03:27:00,
2013-11-05 21:29:00,48.2,46.6,29.93,NW,308,2.0,4.0,94,0.00,,,0.57,0,Wunderground v.1.15,2013-11-06 03:29:00,
2013-11-05 21:34:00,47.8,46.2,29.93,WNW,294,3.0,7.0,94,0.00,,,0.57,0,Wunderground v.1.15,2013-11-06 03:34:00,
2013-11-05 21:36:00,47.7,46.1,29.93,WNW,289,3.0,7.0,94,0.00,,,0.57,0,Wunderground v.1.15,2013-11-06 03:36:00,
2013-11-05 21:38:00,47.6,46.0,29.93,WNW,295,3.0,7.0,94,0.00,,,0.57,0,Wunderground v.1.15,2013-11-06 03:38:00,
2013-11-05 21:39:00,47.5,45.9,29.93,WNW,295,3.0,7.0,94,0.00,,,0.57,0,Wunderground v.1.15,2013-11-06 03:39:00,
2013-11-05 21:41:00,47.4,45.8,29.93,WNW,290,3.0,3.0,94,0.00,,,0.57,0,Wunderground v.1.15,2013-11-06 03:41:00,
2013-11-05 21:42:00,47.4,45.8,29.94,WNW,290,3.0,3.0,94,0.00,,,0.57,0,Wunderground v.1.15,2013-11-06 03:42:00,
2013-11-05 21:45:00,47.3,45.7,29.94,WNW,300,3.0,4.0,94,0.00,,,0.57,0,Wunderground v.1.15,2013-11-06 03:45:00,
2013-11-05 21:47:00,47.3,45.7,29.94,WNW,288,3.0,4.0,94,0.00,,,0.57,0,Wunderground v.1.15,2013-11-06 03:47:00,
2013-11-05 21:48:00,47.2,45.6,29.94,WNW,290,3.0,4.0,94,0.00,,,0.57,0,Wunderground v.1.15,2013-11-06 03:48:00,
2013-11-05 21:49:00,47.2,45.6,29.94,WNW,299,3.0,6.0,94,0.00,,,0.57,0,Wunderground v.1.15,2013-11-06 03:49:00,
2013-11-05 21:53:00,47.1,45.5,29.93,WNW,291,3.0,5.0,94,0.00,,,0.58,0,Wunderground v.1.15,2013-11-06 03:53:00,
2013-11-05 21:54:00,47.0,45.4,29.93,WNW,296,3.0,5.0,94,0.00,,,0.58,0,Wunderground v.1.15,2013-11-06 03:54:00,
2013-11-05 21:56:00,47.0,45.4,29.93,WNW,296,3.0,5.0,94,0.00,,,0.58,0,Wunderground v.1.15,2013-11-06 03:56:00,
2013-11-05 21:57:00,46.9,45.3,29.93,WNW,296,3.0,5.0,94,0.00,,,0.58,0,Wunderground v.1.15,2013-11-06 03:57:00,
2013-11-05 22:01:00,46.9,45.3,29.93,NNW,333,3.0,4.0,94,0.00,,,0.58,0,Wunderground v.1.15,2013-11-06 04:01:00,
2013-11-05 22:02:00,46.9,45.3,29.93,WNW,290,3.0,17.0,94,0.00,,,0.58,0,Wunderground v.1.15,2013-11-06 04:02:00,
2013-11-05 22:03:00,46.8,45.2,29.93,WNW,295,3.0,17.0,94,0.00,,,0.58,0,Wunderground v.1.15,2013-11-06 04:03:00,
2013-11-05 22:06:00,46.8,45.2,29.94,WNW,294,3.0,17.0,94,0.00,,,0.58,0,Wunderground v.1.15,2013-11-06 04:06:00,
2013-11-05 22:07:00,46.7,45.1,29.94,WNW,294,4.0,17.0,94,0.04,,,0.58,0,Wunderground v.1.15,2013-11-06 04:07:00,
2013-11-05 22:09:00,46.7,45.1,29.94,WNW,293,4.0,17.0,94,0.04,,,0.59,0,Wunderground v.1.15,2013-11-06 04:09:00,
2013-11-05 22:11:00,46.6,45.0,29.94,WNW,293,4.0,4.0,94,0.23,,,0.60,0,Wunderground v.1.15,2013-11-06 04:11:00,
2013-11-05 22:12:00,46.6,45.0,29.94,WNW,296,4.0,4.0,94,0.30,,,0.61,0,Wunderground v.1.15,2013-11-06 04:12:00,
2013-11-05 22:14:00,46.6,45.0,29.94,WNW,292,4.0,4.0,94,0.28,,,0.62,0,Wunderground v.1.15,2013-11-06 04:14:00,
2013-11-05 22:15:00,46.6,45.0,29.94,WNW,295,4.0,5.0,94,0.28,,,0.62,0,Wunderground v.1.15,2013-11-06 04:15:00,
2013-11-05 22:16:00,46.5,44.9,29.95,WNW,294,4.0,5.0,94,0.38,,,0.63,0,Wunderground v.1.15,2013-11-06 04:16:00,
2013-11-05 22:18:00,46.5,44.9,29.95,NW,312,4.0,5.0,94,0.25,,,0.63,0,Wunderground v.1.15,2013-11-06 04:18:00,
2013-11-05 22:20:00,46.5,44.9,29.95,WNW,294,4.0,4.0,94,0.17,,,0.64,0,Wunderground v.1.15,2013-11-06 04:20:00,
2013-11-05 22:21:00,46.5,44.9,29.95,WNW,295,4.0,4.0,94,0.17,,,0.64,0,Wunderground v.1.15,2013-11-06 04:21:00,
2013-11-05 22:23:00,46.4,44.8,29.95,NW,315,4.0,5.0,94,0.28,,,0.65,0,Wunderground v.1.15,2013-11-06 04:23:00,
2013-11-05 22:24:00,46.4,44.8,29.95,WNW,288,4.0,5.0,94,0.22,,,0.65,0,Wunderground v.1.15,2013-11-06 04:24:00,
2013-11-05 22:26:00,46.4,44.8,29.95,WNW,297,4.0,5.0,94,0.21,,,0.66,0,Wunderground v.1.15,2013-11-06 04:26:00,
2013-11-05 22:28:00,46.4,44.8,29.95,NW,322,4.0,5.0,94,0.18,,,0.67,0,Wunderground v.1.15,2013-11-06 04:28:00,
2013-11-05 22:30:00,46.4,44.8,29.95,NW,322,4.0,4.0,94,0.18,,,0.67,0,Wunderground v.1.15,2013-11-06 04:30:00,
2013-11-05 22:31:00,46.4,44.8,29.95,NNW,336,5.0,6.0,94,0.16,,,0.67,0,Wunderground v.1.15,2013-11-06 04:31:00,
2013-11-05 22:35:00,46.3,44.7,29.95,NNW,330,5.0,7.0,94,0.13,,,0.68,0,Wunderground v.1.15,2013-11-06 04:35:00,
2013-11-05 22:37:00,46.2,44.6,29.96,NNW,328,5.0,10.0,94,0.14,,,0.69,0,Wunderground v.1.15,2013-11-06 04:37:00,
2013-11-05 22:40:00,46.0,44.4,29.95,NNW,338,6.0,6.0,94,0.14,,,0.69,0,Wunderground v.1.15,2013-11-06 04:40:00,
2013-11-05 22:41:00,45.9,44.3,29.95,NNW,348,6.0,10.0,94,0.13,,,0.69,0,Wunderground v.1.15,2013-11-06 04:41:00,
2013-11-05 22:43:00,45.6,44.0,29.95,NNW,346,7.0,10.0,94,0.10,,,0.70,0,Wunderground v.1.15,2013-11-06 04:43:00,
2013-11-05 22:44:00,45.5,43.9,29.95,NW,318,7.0,10.0,94,0.10,,,0.70,0,Wunderground v.1.15,2013-11-06 04:44:00,
2013-11-05 22:45:00,45.4,43.8,29.95,NNW,346,7.0,10.0,94,0.10,,,0.70,0,Wunderground v.1.15,2013-11-06 04:45:00,
2013-11-05 22:46:00,45.3,43.7,29.95,NNW,334,8.0,10.0,94,0.10,,,0.70,0,Wunderground v.1.15,2013-11-06 04:46:00,
2013-11-05 22:47:00,45.2,43.6,29.95,NNW,341,8.0,10.0,94,0.10,,,0.70,0,Wunderground v.1.15,2013-11-06 04:47:00,
2013-11-05 22:49:00,45.1,43.5,29.95,NNW,335,7.0,10.0,94,0.09,,,0.70,0,Wunderground v.1.15,2013-11-06 04:49:00,
2013-11-05 22:50:00,45.0,43.4,29.95,NNW,340,7.0,7.0,94,0.08,,,0.70,0,Wunderground v.1.15,2013-11-06 04:50:00,
2013-11-05 22:52:00,45.0,43.4,29.95,North,360,7.0,9.0,94,0.08,,,0.71,0,Wunderground v.1.15,2013-11-06 04:52:00,
2013-11-05 22:54:00,44.9,43.3,29.95,NNW,348,7.0,9.0,94,0.08,,,0.71,0,Wunderground v.1.15,2013-11-06 04:54:00,
2013-11-05 22:55:00,44.8,43.2,29.96,NNW,336,7.0,9.0,94,0.08,,,0.71,0,Wunderground v.1.15,2013-11-06 04:55:00,
2013-11-05 22:56:00,44.7,43.1,29.96,North,355,7.0,9.0,94,0.08,,,0.71,0,Wunderground v.1.15,2013-11-06 04:56:00,
2013-11-05 22:59:00,44.6,43.0,29.96,NNW,348,7.0,9.0,94,0.07,,,0.71,0,Wunderground v.1.15,2013-11-06 04:59:00,
2013-11-05 23:01:00,44.5,42.9,29.96,North,355,7.0,9.0,94,0.05,,,0.71,0,Wunderground v.1.15,2013-11-06 05:01:00,
2013-11-05 23:02:00,44.5,42.9,29.96,NNW,342,7.0,9.0,94,0.05,,,0.71,0,Wunderground v.1.15,2013-11-06 05:02:00,
2013-11-05 23:03:00,44.4,42.8,29.96,North,350,7.0,9.0,94,0.05,,,0.71,0,Wunderground v.1.15,2013-11-06 05:03:00,
2013-11-05 23:04:00,44.4,42.8,29.96,NNW,343,7.0,9.0,94,0.04,,,0.71,0,Wunderground v.1.15,2013-11-06 05:04:00,
2013-11-05 23:05:00,44.3,42.7,29.95,North,360,7.0,9.0,94,0.04,,,0.71,0,Wunderground v.1.15,2013-11-06 05:05:00,
2013-11-05 23:07:00,44.2,42.6,29.96,North,5,7.0,9.0,94,0.04,,,0.71,0,Wunderground v.1.15,2013-11-06 05:07:00,
2013-11-05 23:10:00,44.1,42.5,29.95,North,355,6.0,6.0,94,0.00,,,0.71,0,Wunderground v.1.15,2013-11-06 05:10:00,
2013-11-05 23:11:00,44.0,42.4,29.95,NNW,338,6.0,6.0,94,0.00,,,0.71,0,Wunderground v.1.15,2013-11-06 05:11:00,
2013-11-05 23:12:00,44.0,42.4,29.95,NW,325,7.0,8.0,94,0.00,,,0.71,0,Wunderground v.1.15,2013-11-06 05:12:00,
2013-11-05 23:14:00,43.9,42.3,29.95,NNW,336,7.0,8.0,94,0.00,,,0.71,0,Wunderground v.1.15,2013-11-06 05:14:00,
2013-11-05 23:16:00,43.7,42.1,29.96,NNW,338,7.0,10.0,94,0.00,,,0.71,0,Wunderground v.1.15,2013-11-06 05:16:00,
2013-11-05 23:17:00,43.6,42.0,29.96,NW,322,7.0,10.0,94,0.00,,,0.71,0,Wunderground v.1.15,2013-11-06 05:17:00,
2013-11-05 23:20:00,43.3,41.7,29.96,NNW,340,8.0,12.0,94,0.00,,,0.71,0,Wunderground v.1.15,2013-11-06 05:20:00,
2013-11-05 23:21:00,43.1,41.5,29.96,NNW,340,8.0,12.0,94,0.00,,,0.71,0,Wunderground v.1.15,2013-11-06 05:21:00,
2013-11-05 23:22:00,43.0,41.4,29.96,NW,325,8.0,12.0,94,0.00,,,0.71,0,Wunderground v.1.15,2013-11-06 05:22:00,
2013-11-05 23:26:00,42.7,41.1,29.97,NNW,331,9.0,12.0,94,0.00,,,0.71,0,Wunderground v.1.15,2013-11-06 05:26:00,
2013-11-05 23:27:00,42.6,41.0,29.97,NNW,346,10.0,12.0,94,0.00,,,0.71,0,Wunderground v.1.15,2013-11-06 05:27:00,
2013-11-05 23:28:00,42.5,40.9,29.97,North,360,10.0,12.0,94,0.00,,,0.71,0,Wunderground v.1.15,2013-11-06 05:28:00,
2013-11-05 23:30:00,42.5,40.9,29.97,NNW,346,10.0,10.0,94,0.00,,,0.71,0,Wunderground v.1.15,2013-11-06 05:30:00,
2013-11-05 23:34:00,42.4,40.8,29.97,NNW,344,9.0,11.0,94,0.00,,,0.71,0,Wunderground v.1.15,2013-11-06 05:34:00,
2013-11-05 23:36:00,42.3,40.7,29.97,NNW,336,8.0,11.0,94,0.00,,,0.71,0,Wunderground v.1.15,2013-11-06 05:36:00,
2013-11-05 23:37:00,42.3,40.7,29.97,NW,313,8.0,11.0,94,0.00,,,0.71,0,Wunderground v.1.15,2013-11-06 05:37:00,
2013-11-05 23:39:00,42.3,40.7,29.97,NNW,347,8.0,11.0,94,0.00,,,0.71,0,Wunderground v.1.15,2013-11-06 05:39:00,
2013-11-05 23:40:00,42.2,40.6,29.97,NNW,342,8.0,10.0,94,0.00,,,0.71,0,Wunderground v.1.15,2013-11-06 05:40:00,
2013-11-05 23:42:00,42.2,40.6,29.97,NNW,347,8.0,10.0,94,0.00,,,0.71,0,Wunderground v.1.15,2013-11-06 05:42:00,
2013-11-05 23:44:00,42.2,40.6,29.97,NW,315,8.0,10.0,94,0.00,,,0.71,0,Wunderground v.1.15,2013-11-06 05:44:00,
2013-11-05 23:46:00,42.2,40.6,29.98,NNW,329,8.0,11.0,94,0.00,,,0.71,0,Wunderground v.1.15,2013-11-06 05:46:00,
2013-11-05 23:47:00,42.2,40.6,29.98,NNW,344,8.0,11.0,94,0.00,,,0.71,0,Wunderground v.1.15,2013-11-06 05:47:00,
2013-11-05 23:50:00,42.0,40.4,29.98,NNW,343,8.0,9.0,94,0.00,,,0.71,0,Wunderground v.1.15,2013-11-06 05:50:00,
2013-11-05 23:51:00,41.9,40.3,29.97,North,355,8.0,12.0,94,0.00,,,0.71,0,Wunderground v.1.15,2013-11-06 05:51:00,
2013-11-05 23:52:00,41.8,40.2,29.98,NNW,334,8.0,12.0,94,0.00,,,0.71,0,Wunderground v.1.15,2013-11-06 05:52:00,
2013-11-05 23:53:00,41.7,40.1,29.97,NNW,343,9.0,13.0,94,0.00,,,0.71,0,Wunderground v.1.15,2013-11-06 05:53:00,
2013-11-05 23:55:00,41.4,39.5,29.98,NNW,346,10.0,15.0,93,0.00,,,0.71,0,Wunderground v.1.15,2013-11-06 05:55:00,
2013-11-05 23:57:00,41.3,39.4,29.98,North,350,10.0,15.0,93,0.00,,,0.71,0,Wunderground v.1.15,2013-11-06 05:57:00,
2013-11-05 23:58:00,41.2,39.3,29.98,NNW,346,10.0,15.0,93,0.00,,,0.71,0,Wunderground v.1.15,2013-11-06 05:58:00,